Wetterdaten: Donnerstag, 22.01.2026
Datum Zeit Temp. Aussen Temp. o. S. Temp +5cm Feuchte Auss Luftdruck Regen Sonnenschein Regendauer Solar Windböen Empfang
22.01.2026 00:00 2,8 °C 2,2 °C -1,7 °C 78 % 999,0 hPa 0,0 l/m² 0 min 0 min 0 W/m² 12,9 km/h (3 Bft) 94,87 %
22.01.2026 00:02 2,8 °C 2,2 °C -1,7 °C 78 % 998,9 hPa 0,0 l/m² 0 min 0 min 0 W/m² 6,4 km/h (2 Bft) 90,91 %
22.01.2026 00:04 2,8 °C 2,2 °C -1,7 °C 78 % 998,9 hPa 0,0 l/m² 0 min 0 min 0 W/m² 19,3 km/h (3 Bft) 95,74 %
22.01.2026 00:07 2,8 °C 2,2 °C -1,7 °C 78 % 999,0 hPa 0,0 l/m² 0 min 0 min 0 W/m² 16,1 km/h (3 Bft) 95,74 %
22.01.2026 00:08 2,7 °C 2,2 °C -1,7 °C 78 % 999,0 hPa 0,0 l/m² 0 min 0 min 0 W/m² 16,1 km/h (3 Bft) 95,79 %
22.01.2026 00:10 2,7 °C 2,2 °C -1,7 °C 78 % 999,0 hPa 0,0 l/m² 0 min 0 min 0 W/m² 12,9 km/h (3 Bft) 93,62 %
22.01.2026 00:12 2,7 °C 2,2 °C -1,7 °C 78 % 999,0 hPa 0,0 l/m² 0 min 0 min 0 W/m² 22,5 km/h (4 Bft) 93,02 %
22.01.2026 00:14 2,7 °C 2,2 °C -1,7 °C 78 % 999,0 hPa 0,0 l/m² 0 min 0 min 0 W/m² 16,1 km/h (3 Bft) 95,56 %
22.01.2026 00:16 2,7 °C 2,2 °C -1,7 °C 78 % 999,0 hPa 0,0 l/m² 0 min 0 min 0 W/m² 12,9 km/h (3 Bft) 95,12 %
22.01.2026 00:18 2,7 °C 1,7 °C -1,7 °C 78 % 999,0 hPa 0,0 l/m² 0 min 0 min 0 W/m² 9,7 km/h (2 Bft) 94,74 %
22.01.2026 00:20 2,7 °C 1,7 °C -1,7 °C 78 % 998,9 hPa 0,0 l/m² 0 min 0 min 0 W/m² 9,7 km/h (2 Bft) 93,18 %
22.01.2026 00:22 2,7 °C 1,7 °C -1,7 °C 78 % 998,9 hPa 0,0 l/m² 0 min 0 min 0 W/m² 6,4 km/h (2 Bft) 92,31 %
22.01.2026 00:24 2,7 °C 1,7 °C -1,7 °C 78 % 998,9 hPa 0,0 l/m² 0 min 0 min 0 W/m² 6,4 km/h (2 Bft) 91,53 %
22.01.2026 00:26 2,7 °C 1,7 °C -2,2 °C 78 % 998,9 hPa 0,0 l/m² 0 min 0 min 0 W/m² 16,1 km/h (3 Bft) 90,91 %
22.01.2026 00:28 2,6 °C 1,7 °C -2,2 °C 78 % 999,0 hPa 0,0 l/m² 0 min 0 min 0 W/m² 12,9 km/h (3 Bft) 94,74 %
22.01.2026 00:30 2,6 °C 1,7 °C -2,2 °C 78 % 998,9 hPa 0,0 l/m² 0 min 0 min 0 W/m² 9,7 km/h (2 Bft) 93,62 %
22.01.2026 00:32 2,6 °C 1,7 °C -2,2 °C 78 % 998,9 hPa 0,0 l/m² 0 min 0 min 0 W/m² 12,9 km/h (3 Bft) 91,38 %
22.01.2026 00:34 2,6 °C 1,7 °C -2,2 °C 77 % 998,9 hPa 0,0 l/m² 0 min 0 min 0 W/m² 16,1 km/h (3 Bft) 97,78 %
22.01.2026 00:36 2,6 °C 1,7 °C -2,2 °C 77 % 998,9 hPa 0,0 l/m² 0 min 0 min 0 W/m² 12,9 km/h (3 Bft) 97,73 %
22.01.2026 00:38 2,6 °C 1,7 °C -2,2 °C 77 % 998,9 hPa 0,0 l/m² 0 min 0 min 0 W/m² 6,4 km/h (2 Bft) 98,08 %
22.01.2026 00:40 2,6 °C 1,7 °C -2,2 °C 77 % 998,9 hPa 0,0 l/m² 0 min 0 min 0 W/m² 16,1 km/h (3 Bft) 95,65 %
22.01.2026 00:42 2,6 °C 1,7 °C -2,2 °C 77 % 998,9 hPa 0,0 l/m² 0 min 0 min 0 W/m² 6,4 km/h (2 Bft) 97,83 %
22.01.2026 00:44 2,5 °C 1,7 °C -2,2 °C 77 % 998,9 hPa 0,0 l/m² 0 min 0 min 0 W/m² 6,4 km/h (2 Bft) 97,78 %
22.01.2026 00:46 2,5 °C 1,7 °C -2,2 °C 77 % 998,9 hPa 0,0 l/m² 0 min 0 min 0 W/m² 6,4 km/h (2 Bft) 97,78 %
22.01.2026 00:48 2,4 °C 1,7 °C -2,2 °C 78 % 998,8 hPa 0,0 l/m² 0 min 0 min 0 W/m² 6,4 km/h (2 Bft) 97,50 %
22.01.2026 00:50 2,4 °C 1,7 °C -2,2 °C 78 % 998,8 hPa 0,0 l/m² 0 min 0 min 0 W/m² 12,9 km/h (3 Bft) 96,61 %
22.01.2026 00:52 2,4 °C 1,7 °C -2,2 °C 78 % 998,8 hPa 0,0 l/m² 0 min 0 min 0 W/m² 9,7 km/h (2 Bft) 97,78 %
22.01.2026 00:54 2,4 °C 1,7 °C -2,2 °C 78 % 998,8 hPa 0,0 l/m² 0 min 0 min 0 W/m² 6,4 km/h (2 Bft) 97,78 %
22.01.2026 00:56 2,4 °C 1,7 °C -2,2 °C 78 % 998,8 hPa 0,0 l/m² 0 min 0 min 0 W/m² 16,1 km/h (3 Bft) 94,74 %
22.01.2026 00:58 2,3 °C 1,7 °C -2,2 °C 78 % 998,7 hPa 0,0 l/m² 0 min 0 min 0 W/m² 12,9 km/h (3 Bft) 97,87 %
22.01.2026 01:00 2,3 °C 1,1 °C -2,2 °C 78 % 998,7 hPa 0,0 l/m² 0 min 0 min 0 W/m² 6,4 km/h (2 Bft) 98,31 %
22.01.2026 01:02 2,3 °C 1,1 °C -2,2 °C 78 % 998,7 hPa 0,0 l/m² 0 min 0 min 0 W/m² 12,9 km/h (3 Bft) 100,00 %
22.01.2026 01:04 2,3 °C 1,1 °C -2,2 °C 78 % 998,7 hPa 0,0 l/m² 0 min 0 min 0 W/m² 16,1 km/h (3 Bft) 97,78 %
22.01.2026 01:06 2,3 °C 1,1 °C -2,2 °C 78 % 998,6 hPa 0,0 l/m² 0 min 0 min 0 W/m² 12,9 km/h (3 Bft) 97,78 %
22.01.2026 01:08 2,2 °C 1,1 °C -2,2 °C 79 % 998,7 hPa 0,0 l/m² 0 min 0 min 0 W/m² 12,9 km/h (3 Bft) 100,00 %
22.01.2026 01:10 2,2 °C 1,1 °C -2,2 °C 79 % 998,7 hPa 0,0 l/m² 0 min 0 min 0 W/m² 6,4 km/h (2 Bft) 100,00 %
22.01.2026 01:12 2,2 °C 1,1 °C -2,2 °C 79 % 998,6 hPa 0,0 l/m² 0 min 0 min 0 W/m² 12,9 km/h (3 Bft) 100,00 %
22.01.2026 01:14 2,2 °C 1,1 °C -2,2 °C 79 % 998,7 hPa 0,0 l/m² 0 min 0 min 0 W/m² 12,9 km/h (3 Bft) 100,00 %
22.01.2026 01:16 2,2 °C 1,1 °C -2,2 °C 79 % 998,6 hPa 0,0 l/m² 0 min 0 min 0 W/m² 6,4 km/h (2 Bft) 100,00 %
22.01.2026 01:18 2,1 °C 1,1 °C -2,2 °C 79 % 998,6 hPa 0,0 l/m² 0 min 0 min 0 W/m² 6,4 km/h (2 Bft) 100,00 %
22.01.2026 01:20 2,1 °C 1,1 °C -2,2 °C 79 % 998,6 hPa 0,0 l/m² 0 min 0 min 0 W/m² 6,4 km/h (2 Bft) 100,00 %
22.01.2026 01:22 2,1 °C 1,1 °C -2,2 °C 79 % 998,6 hPa 0,0 l/m² 0 min 0 min 0 W/m² 6,4 km/h (2 Bft) 100,00 %
22.01.2026 01:24 2,1 °C 1,1 °C -2,8 °C 79 % 998,6 hPa 0,0 l/m² 0 min 0 min 0 W/m² 12,9 km/h (3 Bft) 98,28 %
22.01.2026 01:26 2,1 °C 1,1 °C -2,8 °C 79 % 998,7 hPa 0,0 l/m² 0 min 0 min 0 W/m² 12,9 km/h (3 Bft) 100,00 %
22.01.2026 01:28 2,1 °C 1,1 °C -2,8 °C 80 % 998,6 hPa 0,0 l/m² 0 min 0 min 0 W/m² 6,4 km/h (2 Bft) 100,00 %
22.01.2026 01:30 2,1 °C 1,1 °C -2,8 °C 80 % 998,6 hPa 0,0 l/m² 0 min 0 min 0 W/m² 9,7 km/h (2 Bft) 100,00 %
22.01.2026 01:32 2,0 °C 1,1 °C -2,8 °C 80 % 998,6 hPa 0,0 l/m² 0 min 0 min 0 W/m² 12,9 km/h (3 Bft) 100,00 %
22.01.2026 01:34 2,0 °C 1,1 °C -2,8 °C 80 % 998,6 hPa 0,0 l/m² 0 min 0 min 0 W/m² 6,4 km/h (2 Bft) 100,00 %
22.01.2026 01:36 2,0 °C 1,1 °C -2,8 °C 80 % 998,6 hPa 0,0 l/m² 0 min 0 min 0 W/m² 6,4 km/h (2 Bft) 53,49 %
22.01.2026 01:38 1,9 °C 1,1 °C -2,8 °C 79 % 998,6 hPa 0,0 l/m² 0 min 0 min 0 W/m² 6,4 km/h (2 Bft) 98,25 %
22.01.2026 01:40 1,9 °C 1,1 °C -2,8 °C 80 % 998,6 hPa 0,0 l/m² 0 min 0 min 0 W/m² 12,9 km/h (3 Bft) 100,00 %
22.01.2026 01:42 1,9 °C 1,1 °C -2,8 °C 80 % 998,6 hPa 0,0 l/m² 0 min 0 min 0 W/m² 6,4 km/h (2 Bft) 100,00 %
22.01.2026 01:44 1,9 °C 1,1 °C -2,8 °C 80 % 998,6 hPa 0,0 l/m² 0 min 0 min 0 W/m² 12,9 km/h (3 Bft) 100,00 %
22.01.2026 01:46 1,9 °C 1,1 °C -2,8 °C 80 % 998,6 hPa 0,0 l/m² 0 min 0 min 0 W/m² 6,4 km/h (2 Bft) 100,00 %
22.01.2026 01:48 1,8 °C 1,1 °C -2,8 °C 80 % 998,5 hPa 0,0 l/m² 0 min 0 min 0 W/m² 9,7 km/h (2 Bft) 100,00 %
22.01.2026 01:50 1,8 °C 1,1 °C -2,8 °C 80 % 998,5 hPa 0,0 l/m² 0 min 0 min 0 W/m² 16,1 km/h (3 Bft) 97,87 %
22.01.2026 01:52 1,8 °C 1,1 °C -2,8 °C 80 % 998,5 hPa 0,0 l/m² 0 min 0 min 0 W/m² 12,9 km/h (3 Bft) 96,49 %
22.01.2026 01:54 1,8 °C 1,1 °C -2,2 °C 80 % 998,5 hPa 0,0 l/m² 0 min 0 min 0 W/m² 16,1 km/h (3 Bft) 97,73 %
22.01.2026 01:56 1,8 °C 1,1 °C -2,8 °C 80 % 998,5 hPa 0,0 l/m² 0 min 0 min 0 W/m² 12,9 km/h (3 Bft) 100,00 %
22.01.2026 01:58 1,8 °C 1,1 °C -2,8 °C 80 % 998,4 hPa 0,0 l/m² 0 min 0 min 0 W/m² 6,4 km/h (2 Bft) 97,87 %
22.01.2026 02:00 1,8 °C 1,1 °C -2,8 °C 80 % 998,4 hPa 0,0 l/m² 0 min 0 min 0 W/m² 12,9 km/h (3 Bft) 95,74 %
22.01.2026 02:02 1,8 °C 1,1 °C -2,8 °C 80 % 998,4 hPa 0,0 l/m² 0 min 0 min 0 W/m² 12,9 km/h (3 Bft) 97,87 %
22.01.2026 02:04 1,8 °C 1,1 °C -2,8 °C 80 % 998,3 hPa 0,0 l/m² 0 min 0 min 0 W/m² 6,4 km/h (2 Bft) 97,87 %
22.01.2026 02:07 1,8 °C 1,1 °C -2,8 °C 80 % 998,3 hPa 0,0 l/m² 0 min 0 min 0 W/m² 12,9 km/h (3 Bft) 98,78 %
22.01.2026 02:10 1,8 °C 1,1 °C -2,8 °C 80 % 998,3 hPa 0,0 l/m² 0 min 0 min 0 W/m² 12,9 km/h (3 Bft) 97,37 %
22.01.2026 02:14 1,8 °C 1,1 °C -2,8 °C 80 % 998,3 hPa 0,0 l/m² 0 min 0 min 0 W/m² 6,4 km/h (2 Bft) 100,00 %
22.01.2026 02:16 1,8 °C 1,1 °C -2,8 °C 80 % 998,3 hPa 0,0 l/m² 0 min 0 min 0 W/m² 6,4 km/h (2 Bft) 97,87 %
22.01.2026 02:18 1,8 °C 1,1 °C -2,8 °C 80 % 998,3 hPa 0,0 l/m² 0 min 0 min 0 W/m² 19,3 km/h (3 Bft) 97,78 %
22.01.2026 02:20 1,8 °C 1,1 °C -2,8 °C 80 % 998,3 hPa 0,0 l/m² 0 min 0 min 0 W/m² 12,9 km/h (3 Bft) 97,96 %
22.01.2026 02:22 1,8 °C 1,1 °C -2,8 °C 79 % 998,3 hPa 0,0 l/m² 0 min 0 min 0 W/m² 12,9 km/h (3 Bft) 97,87 %
22.01.2026 02:24 1,8 °C 1,1 °C -2,8 °C 79 % 998,3 hPa 0,0 l/m² 0 min 0 min 0 W/m² 6,4 km/h (2 Bft) 100,00 %
22.01.2026 02:26 1,7 °C 1,1 °C -2,8 °C 79 % 998,3 hPa 0,0 l/m² 0 min 0 min 0 W/m² 12,9 km/h (3 Bft) 100,00 %
22.01.2026 02:28 1,8 °C 1,1 °C -2,8 °C 79 % 998,2 hPa 0,0 l/m² 0 min 0 min 0 W/m² 16,1 km/h (3 Bft) 98,21 %
22.01.2026 02:30 1,8 °C 1,1 °C -2,8 °C 79 % 998,2 hPa 0,0 l/m² 0 min 0 min 0 W/m² 9,7 km/h (2 Bft) 97,50 %
22.01.2026 02:32 1,7 °C 1,1 °C -2,8 °C 79 % 998,2 hPa 0,0 l/m² 0 min 0 min 0 W/m² 12,9 km/h (3 Bft) 100,00 %
22.01.2026 02:34 1,8 °C 1,1 °C -2,8 °C 79 % 998,2 hPa 0,0 l/m² 0 min 0 min 0 W/m² 12,9 km/h (3 Bft) 100,00 %
22.01.2026 02:36 1,8 °C 1,1 °C -2,8 °C 79 % 998,2 hPa 0,0 l/m² 0 min 0 min 0 W/m² 12,9 km/h (3 Bft) 100,00 %
22.01.2026 02:38 1,8 °C 1,1 °C -2,8 °C 79 % 998,1 hPa 0,0 l/m² 0 min 0 min 0 W/m² 16,1 km/h (3 Bft) 97,87 %
22.01.2026 02:40 1,8 °C 1,1 °C -2,8 °C 79 % 998,2 hPa 0,0 l/m² 0 min 0 min 0 W/m² 12,9 km/h (3 Bft) 97,83 %
22.01.2026 02:42 1,8 °C 1,1 °C -2,2 °C 79 % 998,2 hPa 0,0 l/m² 0 min 0 min 0 W/m² 12,9 km/h (3 Bft) 97,78 %
22.01.2026 02:44 1,8 °C 1,1 °C -2,2 °C 78 % 998,2 hPa 0,0 l/m² 0 min 0 min 0 W/m² 12,9 km/h (3 Bft) 98,21 %
22.01.2026 02:46 1,8 °C 1,1 °C -2,2 °C 78 % 998,2 hPa 0,0 l/m² 0 min 0 min 0 W/m² 12,9 km/h (3 Bft) 97,56 %
22.01.2026 02:48 1,8 °C 1,1 °C -2,2 °C 78 % 998,2 hPa 0,0 l/m² 0 min 0 min 0 W/m² 12,9 km/h (3 Bft) 95,65 %
22.01.2026 02:50 1,8 °C 1,1 °C -2,2 °C 78 % 998,1 hPa 0,0 l/m² 0 min 0 min 0 W/m² 6,4 km/h (2 Bft) 95,74 %
22.01.2026 02:52 1,8 °C 1,1 °C -2,2 °C 78 % 998,1 hPa 0,0 l/m² 0 min 0 min 0 W/m² 12,9 km/h (3 Bft) 95,56 %
22.01.2026 02:54 1,9 °C 1,1 °C -2,2 °C 77 % 998,1 hPa 0,0 l/m² 0 min 0 min 0 W/m² 16,1 km/h (3 Bft) 95,56 %
22.01.2026 02:56 1,9 °C 1,1 °C -2,2 °C 77 % 998,1 hPa 0,0 l/m² 0 min 0 min 0 W/m² 16,1 km/h (3 Bft) 94,12 %
22.01.2026 02:58 1,9 °C 1,1 °C -2,2 °C 77 % 998,1 hPa 0,0 l/m² 0 min 0 min 0 W/m² 12,9 km/h (3 Bft) 95,74 %
22.01.2026 03:00 1,9 °C 1,1 °C -2,2 °C 77 % 998,1 hPa 0,0 l/m² 0 min 0 min 0 W/m² 19,3 km/h (3 Bft) 93,33 %
22.01.2026 03:02 1,9 °C 1,1 °C -2,2 °C 77 % 998,1 hPa 0,0 l/m² 0 min 0 min 0 W/m² 12,9 km/h (3 Bft) 95,56 %
22.01.2026 03:04 1,9 °C 1,1 °C -2,2 °C 76 % 998,0 hPa 0,0 l/m² 0 min 0 min 0 W/m² 12,9 km/h (3 Bft) 94,74 %
22.01.2026 03:06 1,9 °C 1,1 °C -2,8 °C 76 % 998,0 hPa 0,0 l/m² 0 min 0 min 0 W/m² 16,1 km/h (3 Bft) 92,50 %
22.01.2026 03:08 1,9 °C 1,1 °C -2,2 °C 76 % 998,0 hPa 0,0 l/m² 0 min 0 min 0 W/m² 12,9 km/h (3 Bft) 95,74 %
22.01.2026 03:10 1,9 °C 1,1 °C -2,8 °C 76 % 998,0 hPa 0,0 l/m² 0 min 0 min 0 W/m² 12,9 km/h (3 Bft) 91,49 %
22.01.2026 03:12 1,9 °C 1,1 °C -2,8 °C 76 % 998,1 hPa 0,0 l/m² 0 min 0 min 0 W/m² 12,9 km/h (3 Bft) 95,45 %
22.01.2026 03:14 1,9 °C 1,1 °C -2,8 °C 76 % 998,1 hPa 0,0 l/m² 0 min 0 min 0 W/m² 12,9 km/h (3 Bft) 95,92 %
22.01.2026 03:16 1,9 °C 1,1 °C -2,8 °C 76 % 998,1 hPa 0,0 l/m² 0 min 0 min 0 W/m² 12,9 km/h (3 Bft) 95,74 %
22.01.2026 03:18 1,9 °C 1,1 °C -2,8 °C 76 % 998,1 hPa 0,0 l/m² 0 min 0 min 0 W/m² 9,7 km/h (2 Bft) 97,67 %
22.01.2026 03:20 1,9 °C 1,1 °C -2,8 °C 76 % 998,1 hPa 0,0 l/m² 0 min 0 min 0 W/m² 12,9 km/h (3 Bft) 96,08 %
22.01.2026 03:22 1,9 °C 1,1 °C -2,8 °C 76 % 998,1 hPa 0,0 l/m² 0 min 0 min 0 W/m² 9,7 km/h (2 Bft) 97,87 %
22.01.2026 03:24 1,9 °C 1,1 °C -2,8 °C 76 % 998,1 hPa 0,0 l/m² 0 min 0 min 0 W/m² 12,9 km/h (3 Bft) 95,35 %
22.01.2026 03:26 1,8 °C 1,1 °C -2,8 °C 76 % 998,1 hPa 0,0 l/m² 0 min 0 min 0 W/m² 6,4 km/h (2 Bft) 98,00 %
22.01.2026 03:28 1,8 °C 1,1 °C -2,8 °C 76 % 998,1 hPa 0,0 l/m² 0 min 0 min 0 W/m² 12,9 km/h (3 Bft) 95,74 %
22.01.2026 03:30 1,8 °C 1,1 °C -2,8 °C 76 % 998,1 hPa 0,0 l/m² 0 min 0 min 0 W/m² 6,4 km/h (2 Bft) 97,67 %
22.01.2026 03:32 1,8 °C 0,6 °C -2,8 °C 76 % 998,1 hPa 0,0 l/m² 0 min 0 min 0 W/m² 12,9 km/h (3 Bft) 97,87 %
22.01.2026 03:34 1,8 °C 0,6 °C -2,8 °C 76 % 998,1 hPa 0,0 l/m² 0 min 0 min 0 W/m² 12,9 km/h (3 Bft) 97,92 %
22.01.2026 03:36 1,7 °C 0,6 °C -2,8 °C 76 % 998,0 hPa 0,0 l/m² 0 min 0 min 0 W/m² 12,9 km/h (3 Bft) 98,21 %
22.01.2026 03:38 1,7 °C 0,6 °C -2,8 °C 76 % 998,0 hPa 0,0 l/m² 0 min 0 min 0 W/m² 12,9 km/h (3 Bft) 97,50 %
22.01.2026 03:40 1,7 °C 0,6 °C -2,8 °C 76 % 998,0 hPa 0,0 l/m² 0 min 0 min 0 W/m² 12,9 km/h (3 Bft) 95,74 %
22.01.2026 03:42 1,7 °C 0,6 °C -2,8 °C 76 % 998,1 hPa 0,0 l/m² 0 min 0 min 0 W/m² 16,1 km/h (3 Bft) 95,45 %
22.01.2026 03:44 1,7 °C 0,6 °C -2,8 °C 76 % 998,1 hPa 0,0 l/m² 0 min 0 min 0 W/m² 6,4 km/h (2 Bft) 98,21 %
22.01.2026 03:46 1,7 °C 0,6 °C -2,8 °C 76 % 998,1 hPa 0,0 l/m² 0 min 0 min 0 W/m² 6,4 km/h (2 Bft) 97,50 %
22.01.2026 03:48 1,6 °C 0,6 °C -2,8 °C 76 % 998,1 hPa 0,0 l/m² 0 min 0 min 0 W/m² 6,4 km/h (2 Bft) 95,74 %
22.01.2026 03:50 1,6 °C 0,6 °C -2,8 °C 76 % 998,1 hPa 0,0 l/m² 0 min 0 min 0 W/m² 12,9 km/h (3 Bft) 97,78 %
22.01.2026 03:52 1,6 °C 0,6 °C -2,8 °C 76 % 998,1 hPa 0,0 l/m² 0 min 0 min 0 W/m² 6,4 km/h (2 Bft) 97,96 %
22.01.2026 03:54 1,6 °C 0,6 °C -2,8 °C 76 % 998,1 hPa 0,0 l/m² 0 min 0 min 0 W/m² 12,9 km/h (3 Bft) 97,87 %
22.01.2026 03:56 1,6 °C 0,6 °C -2,8 °C 76 % 998,0 hPa 0,0 l/m² 0 min 0 min 0 W/m² 12,9 km/h (3 Bft) 95,65 %
22.01.2026 03:58 1,6 °C 0,6 °C -2,8 °C 76 % 998,0 hPa 0,0 l/m² 0 min 0 min 0 W/m² 16,1 km/h (3 Bft) 97,73 %
22.01.2026 04:00 1,6 °C 0,6 °C -2,8 °C 76 % 998,0 hPa 0,0 l/m² 0 min 0 min 0 W/m² 9,7 km/h (2 Bft) 98,00 %
22.01.2026 04:02 1,6 °C 0,6 °C -2,8 °C 76 % 998,0 hPa 0,0 l/m² 0 min 0 min 0 W/m² 16,1 km/h (3 Bft) 97,87 %
22.01.2026 04:04 1,6 °C 0,6 °C -2,8 °C 76 % 998,0 hPa 0,0 l/m² 0 min 0 min 0 W/m² 6,4 km/h (2 Bft) 97,87 %
22.01.2026 04:08 1,5 °C 0,6 °C -2,8 °C 77 % 998,0 hPa 0,0 l/m² 0 min 0 min 0 W/m² 12,9 km/h (3 Bft) 97,83 %
22.01.2026 04:10 1,5 °C 0,6 °C -3,3 °C 77 % 998,0 hPa 0,0 l/m² 0 min 0 min 0 W/m² 9,7 km/h (2 Bft) 100,00 %
22.01.2026 04:12 1,4 °C 0,6 °C -2,8 °C 77 % 997,9 hPa 0,0 l/m² 0 min 0 min 0 W/m² 12,9 km/h (3 Bft) 94,00 %
22.01.2026 04:14 1,4 °C 0,6 °C -2,8 °C 77 % 997,9 hPa 0,0 l/m² 0 min 0 min 0 W/m² 12,9 km/h (3 Bft) 100,00 %
22.01.2026 04:16 1,4 °C 0,6 °C -2,8 °C 77 % 997,9 hPa 0,0 l/m² 0 min 0 min 0 W/m² 12,9 km/h (3 Bft) 97,78 %
22.01.2026 04:18 1,4 °C 0,6 °C -2,8 °C 77 % 997,9 hPa 0,0 l/m² 0 min 0 min 0 W/m² 9,7 km/h (2 Bft) 100,00 %
22.01.2026 04:20 1,4 °C 0,6 °C -2,8 °C 77 % 997,9 hPa 0,0 l/m² 0 min 0 min 0 W/m² 12,9 km/h (3 Bft) 100,00 %
22.01.2026 04:22 1,4 °C 0,6 °C -3,3 °C 77 % 997,9 hPa 0,0 l/m² 0 min 0 min 0 W/m² 12,9 km/h (3 Bft) 100,00 %
22.01.2026 04:24 1,4 °C 0,6 °C -3,3 °C 76 % 997,9 hPa 0,0 l/m² 0 min 0 min 0 W/m² 6,4 km/h (2 Bft) 100,00 %
22.01.2026 04:26 1,4 °C 0,6 °C -3,3 °C 77 % 997,9 hPa 0,0 l/m² 0 min 0 min 0 W/m² 6,4 km/h (2 Bft) 97,87 %
22.01.2026 04:28 1,4 °C 0,6 °C -3,3 °C 77 % 997,9 hPa 0,0 l/m² 0 min 0 min 0 W/m² 12,9 km/h (3 Bft) 100,00 %
22.01.2026 04:30 1,4 °C 0,6 °C -3,3 °C 77 % 997,9 hPa 0,0 l/m² 0 min 0 min 0 W/m² 9,7 km/h (2 Bft) 100,00 %
22.01.2026 04:32 1,3 °C 0,6 °C -3,3 °C 77 % 997,9 hPa 0,0 l/m² 0 min 0 min 0 W/m² 6,4 km/h (2 Bft) 100,00 %
22.01.2026 04:34 1,3 °C 0,6 °C -3,3 °C 77 % 997,9 hPa 0,0 l/m² 0 min 0 min 0 W/m² 12,9 km/h (3 Bft) 100,00 %
22.01.2026 04:36 1,3 °C 0,6 °C -3,3 °C 77 % 997,9 hPa 0,0 l/m² 0 min 0 min 0 W/m² 6,4 km/h (2 Bft) 100,00 %
22.01.2026 04:38 1,3 °C 0,6 °C -3,3 °C 77 % 997,9 hPa 0,0 l/m² 0 min 0 min 0 W/m² 12,9 km/h (3 Bft) 100,00 %
22.01.2026 04:40 1,3 °C 0,6 °C -3,3 °C 77 % 997,9 hPa 0,0 l/m² 0 min 0 min 0 W/m² 6,4 km/h (2 Bft) 100,00 %
22.01.2026 04:42 1,3 °C 0,6 °C -3,3 °C 77 % 997,8 hPa 0,0 l/m² 0 min 0 min 0 W/m² 6,4 km/h (2 Bft) 71,70 %
22.01.2026 04:44 1,3 °C 0,6 °C -3,3 °C 77 % 997,8 hPa 0,0 l/m² 0 min 0 min 0 W/m² 6,4 km/h (2 Bft) 86,49 %
22.01.2026 04:46 1,3 °C 0,6 °C -3,3 °C 77 % 997,7 hPa 0,0 l/m² 0 min 0 min 0 W/m² 16,1 km/h (3 Bft) 97,87 %
22.01.2026 04:48 1,3 °C 0,6 °C -3,3 °C 77 % 997,8 hPa 0,0 l/m² 0 min 0 min 0 W/m² 6,4 km/h (2 Bft) 100,00 %
22.01.2026 04:50 1,3 °C 0,6 °C -2,8 °C 77 % 997,7 hPa 0,0 l/m² 0 min 0 min 0 W/m² 16,1 km/h (3 Bft) 100,00 %
22.01.2026 04:52 1,3 °C 0,6 °C -3,3 °C 77 % 997,7 hPa 0,0 l/m² 0 min 0 min 0 W/m² 16,1 km/h (3 Bft) 100,00 %
22.01.2026 04:54 1,3 °C 0,6 °C -2,8 °C 76 % 997,7 hPa 0,0 l/m² 0 min 0 min 0 W/m² 12,9 km/h (3 Bft) 97,87 %
22.01.2026 04:56 1,3 °C 0,6 °C -2,8 °C 76 % 997,7 hPa 0,0 l/m² 0 min 0 min 0 W/m² 19,3 km/h (3 Bft) 97,83 %
22.01.2026 04:58 1,4 °C 1,1 °C -2,8 °C 76 % 997,7 hPa 0,0 l/m² 0 min 0 min 0 W/m² 16,1 km/h (3 Bft) 97,87 %
22.01.2026 05:00 1,4 °C 1,1 °C -2,8 °C 76 % 997,7 hPa 0,0 l/m² 0 min 0 min 0 W/m² 16,1 km/h (3 Bft) 100,00 %
22.01.2026 05:02 1,4 °C 1,1 °C -2,8 °C 76 % 997,7 hPa 0,0 l/m² 0 min 0 min 0 W/m² 16,1 km/h (3 Bft) 97,83 %
22.01.2026 05:04 1,4 °C 1,1 °C -2,8 °C 76 % 997,6 hPa 0,0 l/m² 0 min 0 min 0 W/m² 16,1 km/h (3 Bft) 100,00 %
22.01.2026 05:08 1,5 °C 1,1 °C -2,8 °C 75 % 997,7 hPa 0,0 l/m² 0 min 0 min 0 W/m² 16,1 km/h (3 Bft) 97,85 %
22.01.2026 05:10 1,6 °C 1,1 °C -2,8 °C 75 % 997,7 hPa 0,0 l/m² 0 min 0 min 0 W/m² 19,3 km/h (3 Bft) 97,87 %
22.01.2026 05:12 1,6 °C 1,1 °C -2,8 °C 75 % 997,8 hPa 0,0 l/m² 0 min 0 min 0 W/m² 16,1 km/h (3 Bft) 97,87 %
22.01.2026 05:14 1,6 °C 1,1 °C -2,8 °C 74 % 997,8 hPa 0,0 l/m² 0 min 0 min 0 W/m² 12,9 km/h (3 Bft) 97,87 %
22.01.2026 05:16 1,6 °C 1,1 °C -2,8 °C 74 % 997,7 hPa 0,0 l/m² 0 min 0 min 0 W/m² 12,9 km/h (3 Bft) 97,83 %
22.01.2026 05:18 1,6 °C 1,1 °C -2,8 °C 74 % 997,7 hPa 0,0 l/m² 0 min 0 min 0 W/m² 9,7 km/h (2 Bft) 95,74 %
22.01.2026 05:20 1,7 °C 1,1 °C -2,8 °C 74 % 997,6 hPa 0,0 l/m² 0 min 0 min 0 W/m² 16,1 km/h (3 Bft) 97,83 %
22.01.2026 05:22 1,7 °C 1,1 °C -2,8 °C 74 % 997,7 hPa 0,0 l/m² 0 min 0 min 0 W/m² 12,9 km/h (3 Bft) 93,62 %
22.01.2026 05:24 1,7 °C 1,1 °C -2,8 °C 73 % 997,7 hPa 0,0 l/m² 0 min 0 min 0 W/m² 12,9 km/h (3 Bft) 95,74 %
22.01.2026 05:26 1,7 °C 1,1 °C -2,8 °C 73 % 997,6 hPa 0,0 l/m² 0 min 0 min 0 W/m² 12,9 km/h (3 Bft) 97,83 %
22.01.2026 05:28 1,7 °C 1,1 °C -2,8 °C 73 % 997,6 hPa 0,0 l/m² 0 min 0 min 0 W/m² 12,9 km/h (3 Bft) 75,56 %
22.01.2026 05:30 1,8 °C 1,1 °C -2,8 °C 73 % 997,7 hPa 0,0 l/m² 0 min 0 min 0 W/m² 12,9 km/h (3 Bft) 65,71 %
22.01.2026 05:32 1,8 °C 1,1 °C -2,8 °C 73 % 997,6 hPa 0,0 l/m² 0 min 0 min 0 W/m² 12,9 km/h (3 Bft) 95,92 %
22.01.2026 05:34 1,8 °C 1,1 °C -2,8 °C 73 % 997,6 hPa 0,0 l/m² 0 min 0 min 0 W/m² 19,3 km/h (3 Bft) 95,74 %
22.01.2026 05:36 1,8 °C 1,1 °C -2,8 °C 73 % 997,6 hPa 0,0 l/m² 0 min 0 min 0 W/m² 16,1 km/h (3 Bft) 93,02 %
22.01.2026 05:38 1,8 °C 1,1 °C -2,8 °C 73 % 997,6 hPa 0,0 l/m² 0 min 0 min 0 W/m² 16,1 km/h (3 Bft) 92,16 %
22.01.2026 05:40 1,8 °C 1,1 °C -2,8 °C 72 % 997,6 hPa 0,0 l/m² 0 min 0 min 0 W/m² 16,1 km/h (3 Bft) 95,74 %
22.01.2026 05:42 1,8 °C 1,1 °C -2,8 °C 72 % 997,6 hPa 0,0 l/m² 0 min 0 min 0 W/m² 16,1 km/h (3 Bft) 95,45 %
22.01.2026 05:44 1,8 °C 1,1 °C -2,8 °C 72 % 997,6 hPa 0,0 l/m² 0 min 0 min 0 W/m² 16,1 km/h (3 Bft) 95,45 %
22.01.2026 05:46 1,8 °C 1,1 °C -2,8 °C 72 % 997,6 hPa 0,0 l/m² 0 min 0 min 0 W/m² 16,1 km/h (3 Bft) 98,08 %
22.01.2026 05:48 1,9 °C 1,1 °C -2,8 °C 72 % 997,6 hPa 0,0 l/m² 0 min 0 min 0 W/m² 16,1 km/h (3 Bft) 93,62 %
22.01.2026 05:50 1,9 °C 1,1 °C -2,8 °C 72 % 997,6 hPa 0,0 l/m² 0 min 0 min 0 W/m² 16,1 km/h (3 Bft) 90,70 %
22.01.2026 05:52 1,9 °C 1,1 °C -2,8 °C 72 % 997,5 hPa 0,0 l/m² 0 min 0 min 0 W/m² 12,9 km/h (3 Bft) 94,12 %
22.01.2026 05:54 1,9 °C 1,1 °C -2,8 °C 72 % 997,5 hPa 0,0 l/m² 0 min 0 min 0 W/m² 16,1 km/h (3 Bft) 95,65 %
22.01.2026 05:56 1,9 °C 1,1 °C -2,8 °C 71 % 997,6 hPa 0,0 l/m² 0 min 0 min 0 W/m² 19,3 km/h (3 Bft) 95,74 %
22.01.2026 05:58 1,9 °C 1,1 °C -2,8 °C 71 % 997,5 hPa 0,0 l/m² 0 min 0 min 0 W/m² 12,9 km/h (3 Bft) 93,18 %
22.01.2026 06:00 1,9 °C 1,1 °C -2,8 °C 71 % 997,5 hPa 0,0 l/m² 0 min 0 min 0 W/m² 19,3 km/h (3 Bft) 93,33 %
22.01.2026 06:02 1,9 °C 1,1 °C -2,8 °C 71 % 997,5 hPa 0,0 l/m² 0 min 0 min 0 W/m² 12,9 km/h (3 Bft) 98,08 %
22.01.2026 06:04 1,9 °C 1,1 °C -2,8 °C 71 % 997,5 hPa 0,0 l/m² 0 min 0 min 0 W/m² 12,9 km/h (3 Bft) 93,62 %
22.01.2026 06:07 1,9 °C 1,1 °C -2,8 °C 71 % 997,6 hPa 0,0 l/m² 0 min 0 min 0 W/m² 12,9 km/h (3 Bft) 93,62 %
22.01.2026 06:08 1,9 °C 1,1 °C -2,8 °C 71 % 997,6 hPa 0,0 l/m² 0 min 0 min 0 W/m² 16,1 km/h (3 Bft) 96,77 %
22.01.2026 06:12 1,9 °C 1,1 °C -2,8 °C 71 % 997,6 hPa 0,0 l/m² 0 min 0 min 0 W/m² 16,1 km/h (3 Bft) 97,87 %
22.01.2026 06:16 1,8 °C 1,1 °C -2,8 °C 71 % 997,6 hPa 0,0 l/m² 0 min 0 min 0 W/m² 12,9 km/h (3 Bft) 97,87 %
22.01.2026 06:18 1,8 °C 1,1 °C -2,8 °C 71 % 997,5 hPa 0,0 l/m² 0 min 0 min 0 W/m² 12,9 km/h (3 Bft) 97,83 %
22.01.2026 06:20 1,8 °C 1,1 °C -2,8 °C 71 % 997,5 hPa 0,0 l/m² 0 min 0 min 0 W/m² 19,3 km/h (3 Bft) 97,67 %
22.01.2026 06:22 1,8 °C 1,1 °C -2,8 °C 71 % 997,5 hPa 0,0 l/m² 0 min 0 min 0 W/m² 19,3 km/h (3 Bft) 96,08 %
22.01.2026 06:24 1,8 °C 1,1 °C -2,8 °C 70 % 997,5 hPa 0,0 l/m² 0 min 0 min 0 W/m² 12,9 km/h (3 Bft) 97,87 %
22.01.2026 06:26 1,8 °C 1,1 °C -2,8 °C 70 % 997,5 hPa 0,0 l/m² 0 min 0 min 0 W/m² 16,1 km/h (3 Bft) 97,87 %
22.01.2026 06:28 1,8 °C 1,1 °C -2,8 °C 71 % 997,4 hPa 0,0 l/m² 0 min 0 min 0 W/m² 12,9 km/h (3 Bft) 97,78 %
22.01.2026 06:30 1,8 °C 1,1 °C -2,8 °C 71 % 997,4 hPa 0,0 l/m² 0 min 0 min 0 W/m² 16,1 km/h (3 Bft) 97,73 %
22.01.2026 06:32 1,8 °C 1,1 °C -2,8 °C 71 % 997,3 hPa 0,0 l/m² 0 min 0 min 0 W/m² 22,5 km/h (4 Bft) 98,04 %
22.01.2026 06:34 1,8 °C 1,1 °C -2,8 °C 71 % 997,2 hPa 0,0 l/m² 0 min 0 min 0 W/m² 12,9 km/h (3 Bft) 95,74 %
22.01.2026 06:36 1,8 °C 1,1 °C -2,8 °C 71 % 997,2 hPa 0,0 l/m² 0 min 0 min 0 W/m² 12,9 km/h (3 Bft) 97,87 %
22.01.2026 06:38 1,8 °C 1,1 °C -2,8 °C 71 % 997,2 hPa 0,0 l/m² 0 min 0 min 0 W/m² 12,9 km/h (3 Bft) 97,83 %
22.01.2026 06:40 1,8 °C 0,6 °C -2,8 °C 71 % 997,2 hPa 0,0 l/m² 0 min 0 min 0 W/m² 19,3 km/h (3 Bft) 97,78 %
22.01.2026 06:42 1,7 °C 1,1 °C -2,8 °C 71 % 997,3 hPa 0,0 l/m² 0 min 0 min 0 W/m² 16,1 km/h (3 Bft) 100,00 %
22.01.2026 06:44 1,7 °C 1,1 °C -2,8 °C 71 % 997,3 hPa 0,0 l/m² 0 min 0 min 0 W/m² 12,9 km/h (3 Bft) 97,87 %
22.01.2026 06:46 1,7 °C 0,6 °C -2,8 °C 71 % 997,2 hPa 0,0 l/m² 0 min 0 min 0 W/m² 12,9 km/h (3 Bft) 100,00 %
22.01.2026 06:48 1,7 °C 1,1 °C -2,8 °C 71 % 997,2 hPa 0,0 l/m² 0 min 0 min 0 W/m² 16,1 km/h (3 Bft) 97,78 %
22.01.2026 06:50 1,7 °C 0,6 °C -2,8 °C 71 % 997,2 hPa 0,0 l/m² 0 min 0 min 0 W/m² 19,3 km/h (3 Bft) 100,00 %
22.01.2026 06:52 1,7 °C 0,6 °C -2,8 °C 71 % 997,2 hPa 0,0 l/m² 0 min 0 min 0 W/m² 16,1 km/h (3 Bft) 100,00 %
22.01.2026 06:54 1,7 °C 1,1 °C -2,8 °C 71 % 997,2 hPa 0,0 l/m² 0 min 0 min 0 W/m² 19,3 km/h (3 Bft) 100,00 %
22.01.2026 06:56 1,7 °C 1,1 °C -2,8 °C 71 % 997,1 hPa 0,0 l/m² 0 min 0 min 0 W/m² 22,5 km/h (4 Bft) 97,78 %
22.01.2026 06:58 1,7 °C 1,1 °C -2,8 °C 71 % 997,1 hPa 0,0 l/m² 0 min 0 min 0 W/m² 16,1 km/h (3 Bft) 97,78 %
22.01.2026 07:00 1,7 °C 1,1 °C -2,8 °C 70 % 997,2 hPa 0,0 l/m² 0 min 0 min 0 W/m² 19,3 km/h (3 Bft) 100,00 %
22.01.2026 07:02 1,7 °C 1,1 °C -2,8 °C 70 % 997,1 hPa 0,0 l/m² 0 min 0 min 0 W/m² 19,3 km/h (3 Bft) 100,00 %
22.01.2026 07:04 1,7 °C 1,1 °C -2,8 °C 70 % 997,1 hPa 0,0 l/m² 0 min 0 min 0 W/m² 16,1 km/h (3 Bft) 100,00 %
22.01.2026 07:07 1,7 °C 1,1 °C -2,8 °C 70 % 997,1 hPa 0,0 l/m² 0 min 0 min 0 W/m² 19,3 km/h (3 Bft) 98,57 %
22.01.2026 07:08 1,7 °C 1,1 °C -2,8 °C 70 % 997,1 hPa 0,0 l/m² 0 min 0 min 0 W/m² 12,9 km/h (3 Bft) 100,00 %
22.01.2026 07:12 1,7 °C 1,1 °C -2,8 °C 70 % 997,2 hPa 0,0 l/m² 0 min 0 min 0 W/m² 16,1 km/h (3 Bft) 98,08 %
22.01.2026 07:14 1,7 °C 1,1 °C -2,8 °C 70 % 997,2 hPa 0,0 l/m² 0 min 0 min 0 W/m² 19,3 km/h (3 Bft) 100,00 %
22.01.2026 07:16 1,7 °C 1,1 °C -2,8 °C 70 % 997,2 hPa 0,0 l/m² 0 min 0 min 0 W/m² 19,3 km/h (3 Bft) 100,00 %
22.01.2026 07:18 1,7 °C 1,1 °C -2,8 °C 70 % 997,2 hPa 0,0 l/m² 0 min 0 min 0 W/m² 16,1 km/h (3 Bft) 100,00 %
22.01.2026 07:20 1,7 °C 1,1 °C -2,8 °C 70 % 997,2 hPa 0,0 l/m² 0 min 0 min 0 W/m² 12,9 km/h (3 Bft) 97,78 %
22.01.2026 07:22 1,7 °C 1,1 °C -2,8 °C 70 % 997,1 hPa 0,0 l/m² 0 min 0 min 0 W/m² 16,1 km/h (3 Bft) 97,73 %
22.01.2026 07:24 1,7 °C 1,1 °C -2,8 °C 70 % 997,2 hPa 0,0 l/m² 0 min 0 min 0 W/m² 16,1 km/h (3 Bft) 98,11 %
22.01.2026 07:26 1,7 °C 1,1 °C -2,8 °C 70 % 997,2 hPa 0,0 l/m² 0 min 0 min 0 W/m² 12,9 km/h (3 Bft) 97,87 %
22.01.2026 07:28 1,7 °C 1,1 °C -2,8 °C 70 % 997,1 hPa 0,0 l/m² 0 min 0 min 0 W/m² 19,3 km/h (3 Bft) 97,83 %
22.01.2026 07:30 1,7 °C 0,6 °C -2,8 °C 70 % 997,2 hPa 0,0 l/m² 0 min 0 min 0 W/m² 16,1 km/h (3 Bft) 97,78 %
22.01.2026 07:32 1,7 °C 0,6 °C -2,8 °C 70 % 997,2 hPa 0,0 l/m² 0 min 0 min 0 W/m² 16,1 km/h (3 Bft) 95,56 %
22.01.2026 07:34 1,6 °C 0,6 °C -2,8 °C 70 % 997,2 hPa 0,0 l/m² 0 min 0 min 0 W/m² 12,9 km/h (3 Bft) 95,56 %
22.01.2026 07:36 1,6 °C 0,6 °C -2,8 °C 70 % 997,1 hPa 0,0 l/m² 0 min 0 min 0 W/m² 12,9 km/h (3 Bft) 98,11 %
22.01.2026 07:38 1,6 °C 0,6 °C -2,8 °C 71 % 997,2 hPa 0,0 l/m² 0 min 0 min 0 W/m² 19,3 km/h (3 Bft) 97,83 %
22.01.2026 07:40 1,6 °C 0,6 °C -2,8 °C 71 % 997,1 hPa 0,0 l/m² 0 min 0 min 0 W/m² 16,1 km/h (3 Bft) 97,73 %
22.01.2026 07:42 1,6 °C 0,6 °C -2,8 °C 71 % 997,2 hPa 0,0 l/m² 0 min 0 min 0 W/m² 19,3 km/h (3 Bft) 93,88 %
22.01.2026 07:44 1,6 °C 0,6 °C -2,8 °C 71 % 997,2 hPa 0,0 l/m² 0 min 0 min 0 W/m² 16,1 km/h (3 Bft) 97,92 %
22.01.2026 07:46 1,6 °C 0,6 °C -2,8 °C 71 % 997,3 hPa 0,0 l/m² 0 min 0 min 0 W/m² 19,3 km/h (3 Bft) 90,70 %
22.01.2026 07:48 1,6 °C 0,6 °C -2,8 °C 71 % 997,2 hPa 0,0 l/m² 0 min 0 min 0 W/m² 16,1 km/h (3 Bft) 95,74 %
22.01.2026 07:50 1,6 °C 0,6 °C -2,8 °C 71 % 997,1 hPa 0,0 l/m² 0 min 0 min 0 W/m² 16,1 km/h (3 Bft) 95,74 %
22.01.2026 07:52 1,6 °C 0,6 °C -2,8 °C 71 % 997,2 hPa 0,0 l/m² 0 min 0 min 0 W/m² 12,9 km/h (3 Bft) 97,87 %
22.01.2026 07:54 1,6 °C 0,6 °C -2,8 °C 71 % 997,1 hPa 0,0 l/m² 0 min 0 min 0 W/m² 12,9 km/h (3 Bft) 97,83 %
22.01.2026 07:56 1,6 °C 0,6 °C -2,8 °C 71 % 997,2 hPa 0,0 l/m² 0 min 0 min 0 W/m² 16,1 km/h (3 Bft) 97,87 %
22.01.2026 07:58 1,5 °C 0,6 °C -2,8 °C 71 % 997,2 hPa 0,0 l/m² 0 min 0 min 0 W/m² 16,1 km/h (3 Bft) 97,92 %
22.01.2026 08:00 1,5 °C 0,6 °C -2,8 °C 71 % 997,2 hPa 0,0 l/m² 0 min 0 min 0 W/m² 19,3 km/h (3 Bft) 97,92 %
22.01.2026 08:02 1,5 °C 0,6 °C -2,8 °C 72 % 997,3 hPa 0,0 l/m² 0 min 0 min 0 W/m² 12,9 km/h (3 Bft) 97,92 %
22.01.2026 08:04 1,5 °C 0,6 °C -2,8 °C 72 % 997,3 hPa 0,0 l/m² 0 min 0 min 0 W/m² 22,5 km/h (4 Bft) 95,74 %
22.01.2026 08:08 1,5 °C 0,6 °C -2,8 °C 72 % 997,2 hPa 0,0 l/m² 0 min 0 min 0 W/m² 19,3 km/h (3 Bft) 97,87 %
22.01.2026 08:10 1,5 °C 0,6 °C -2,8 °C 72 % 997,2 hPa 0,0 l/m² 0 min 0 min 0 W/m² 16,1 km/h (3 Bft) 97,87 %
22.01.2026 08:12 1,5 °C 0,6 °C -2,8 °C 72 % 997,2 hPa 0,0 l/m² 0 min 0 min 0 W/m² 16,1 km/h (3 Bft) 95,74 %
22.01.2026 08:14 1,5 °C 0,6 °C -2,8 °C 72 % 997,2 hPa 0,0 l/m² 0 min 0 min 0 W/m² 12,9 km/h (3 Bft) 97,83 %
22.01.2026 08:16 1,5 °C 0,6 °C -2,8 °C 72 % 997,2 hPa 0,0 l/m² 0 min 0 min 0 W/m² 19,3 km/h (3 Bft) 97,87 %
22.01.2026 08:18 1,5 °C 0,6 °C -2,8 °C 72 % 997,2 hPa 0,0 l/m² 0 min 0 min 0 W/m² 19,3 km/h (3 Bft) 95,65 %
22.01.2026 08:22 1,5 °C 0,6 °C -2,8 °C 72 % 997,2 hPa 0,0 l/m² 0 min 0 min 0 W/m² 16,1 km/h (3 Bft) 97,75 %
22.01.2026 08:23 1,5 °C 0,6 °C -2,8 °C 72 % 997,3 hPa 0,0 l/m² 0 min 0 min 4 W/m² 19,3 km/h (3 Bft) 95,65 %
22.01.2026 08:24 1,5 °C 0,6 °C -2,8 °C 72 % 997,2 hPa 0,0 l/m² 0 min 0 min 5 W/m² 16,1 km/h (3 Bft) 96,96 %
22.01.2026 08:25 1,5 °C 0,6 °C -2,8 °C 72 % 997,2 hPa 0,0 l/m² 0 min 0 min 3 W/m² 19,3 km/h (3 Bft) 100,00 %
22.01.2026 08:28 1,5 °C 0,6 °C -2,8 °C 72 % 997,3 hPa 0,0 l/m² 0 min 0 min 5 W/m² 16,1 km/h (3 Bft) 96,98 %
22.01.2026 08:30 1,5 °C 0,6 °C -2,8 °C 72 % 997,3 hPa 0,0 l/m² 0 min 0 min 5 W/m² 16,1 km/h (3 Bft) 100,00 %
22.01.2026 08:32 1,5 °C 0,6 °C -2,8 °C 72 % 997,3 hPa 0,0 l/m² 0 min 0 min 7 W/m² 16,1 km/h (3 Bft) 100,00 %
22.01.2026 08:34 1,5 °C 0,6 °C -2,8 °C 72 % 997,3 hPa 0,0 l/m² 0 min 0 min 7 W/m² 12,9 km/h (3 Bft) 97,78 %
22.01.2026 08:36 1,5 °C 0,6 °C -2,8 °C 72 % 997,4 hPa 0,0 l/m² 0 min 0 min 7 W/m² 16,1 km/h (3 Bft) 100,00 %
22.01.2026 08:38 1,5 °C 0,6 °C -2,8 °C 72 % 997,3 hPa 0,0 l/m² 0 min 0 min 9 W/m² 16,1 km/h (3 Bft) 100,00 %
22.01.2026 08:40 1,5 °C 0,6 °C -2,8 °C 72 % 997,3 hPa 0,0 l/m² 0 min 0 min 9 W/m² 12,9 km/h (3 Bft) 97,78 %
22.01.2026 08:42 1,5 °C 0,6 °C -2,8 °C 72 % 997,3 hPa 0,0 l/m² 0 min 0 min 9 W/m² 19,3 km/h (3 Bft) 97,73 %
22.01.2026 08:44 1,5 °C 0,6 °C -2,8 °C 72 % 997,3 hPa 0,0 l/m² 0 min 0 min 11 W/m² 12,9 km/h (3 Bft) 100,00 %
22.01.2026 08:46 1,5 °C 0,6 °C -2,8 °C 72 % 997,3 hPa 0,0 l/m² 0 min 0 min 11 W/m² 16,1 km/h (3 Bft) 100,00 %
22.01.2026 08:48 1,4 °C 0,6 °C -2,8 °C 72 % 997,3 hPa 0,0 l/m² 0 min 0 min 11 W/m² 12,9 km/h (3 Bft) 100,00 %
22.01.2026 08:50 1,4 °C 0,6 °C -2,8 °C 72 % 997,3 hPa 0,0 l/m² 0 min 0 min 12 W/m² 12,9 km/h (3 Bft) 97,83 %
22.01.2026 08:52 1,4 °C 0,6 °C -3,3 °C 72 % 997,3 hPa 0,0 l/m² 0 min 0 min 13 W/m² 12,9 km/h (3 Bft) 97,73 %
22.01.2026 08:54 1,4 °C 0,6 °C -2,8 °C 72 % 997,3 hPa 0,0 l/m² 0 min 0 min 14 W/m² 9,7 km/h (2 Bft) 97,96 %
22.01.2026 08:56 1,4 °C 0,6 °C -2,8 °C 72 % 997,3 hPa 0,0 l/m² 0 min 0 min 14 W/m² 12,9 km/h (3 Bft) 97,83 %
22.01.2026 08:58 1,4 °C 0,6 °C -3,3 °C 72 % 997,3 hPa 0,0 l/m² 0 min 0 min 15 W/m² 12,9 km/h (3 Bft) 97,78 %
22.01.2026 09:00 1,4 °C 0,6 °C -3,3 °C 73 % 997,3 hPa 0,0 l/m² 0 min 0 min 16 W/m² 12,9 km/h (3 Bft) 94,00 %
22.01.2026 09:02 1,4 °C 0,6 °C -3,3 °C 73 % 997,3 hPa 0,0 l/m² 0 min 0 min 16 W/m² 12,9 km/h (3 Bft) 97,87 %
22.01.2026 09:04 1,4 °C 0,6 °C -2,8 °C 72 % 997,3 hPa 0,0 l/m² 0 min 0 min 16 W/m² 12,9 km/h (3 Bft) 97,87 %
22.01.2026 09:08 1,4 °C 1,1 °C -2,8 °C 72 % 997,3 hPa 0,0 l/m² 0 min 0 min 18 W/m² 16,1 km/h (3 Bft) 96,81 %
22.01.2026 09:10 1,4 °C 1,1 °C -2,8 °C 72 % 997,2 hPa 0,0 l/m² 0 min 0 min 19 W/m² 16,1 km/h (3 Bft) 95,56 %
22.01.2026 09:12 1,4 °C 1,1 °C -2,8 °C 72 % 997,2 hPa 0,0 l/m² 0 min 0 min 19 W/m² 16,1 km/h (3 Bft) 95,56 %
22.01.2026 09:14 1,4 °C 1,1 °C -2,8 °C 72 % 997,2 hPa 0,0 l/m² 0 min 0 min 21 W/m² 16,1 km/h (3 Bft) 97,78 %
22.01.2026 09:16 1,5 °C 1,1 °C -2,8 °C 72 % 997,3 hPa 0,0 l/m² 0 min 0 min 22 W/m² 6,4 km/h (2 Bft) 94,23 %
22.01.2026 09:18 1,5 °C 1,1 °C -2,8 °C 72 % 997,2 hPa 0,0 l/m² 0 min 0 min 23 W/m² 22,5 km/h (4 Bft) 93,62 %
22.01.2026 09:20 1,5 °C 1,1 °C -2,8 °C 72 % 997,2 hPa 0,0 l/m² 0 min 0 min 25 W/m² 16,1 km/h (3 Bft) 95,74 %
22.01.2026 09:22 1,6 °C 1,1 °C -2,8 °C 72 % 997,3 hPa 0,0 l/m² 0 min 0 min 25 W/m² 12,9 km/h (3 Bft) 95,45 %
22.01.2026 09:24 1,6 °C 1,1 °C -2,8 °C 71 % 997,3 hPa 0,0 l/m² 0 min 0 min 26 W/m² 12,9 km/h (3 Bft) 82,22 %
22.01.2026 09:26 1,6 °C 1,1 °C -2,8 °C 71 % 997,3 hPa 0,0 l/m² 0 min 0 min 26 W/m² 12,9 km/h (3 Bft) 65,91 %
22.01.2026 09:28 1,6 °C 1,1 °C -2,8 °C 71 % 997,2 hPa 0,0 l/m² 0 min 0 min 26 W/m² 16,1 km/h (3 Bft) 95,74 %
22.01.2026 09:30 1,6 °C 1,1 °C -2,8 °C 71 % 997,3 hPa 0,0 l/m² 0 min 0 min 28 W/m² 12,9 km/h (3 Bft) 95,74 %
22.01.2026 09:32 1,7 °C 1,7 °C -2,8 °C 71 % 997,2 hPa 0,0 l/m² 0 min 0 min 28 W/m² 16,1 km/h (3 Bft) 93,48 %
22.01.2026 09:34 1,7 °C 1,7 °C -2,2 °C 71 % 997,3 hPa 0,0 l/m² 0 min 0 min 28 W/m² 22,5 km/h (4 Bft) 95,35 %
22.01.2026 09:36 1,8 °C 1,7 °C -2,2 °C 71 % 997,3 hPa 0,0 l/m² 0 min 0 min 30 W/m² 19,3 km/h (3 Bft) 96,08 %
22.01.2026 09:38 1,8 °C 1,7 °C -2,2 °C 70 % 997,2 hPa 0,0 l/m² 0 min 0 min 30 W/m² 22,5 km/h (4 Bft) 93,62 %
22.01.2026 09:40 1,8 °C 1,7 °C -2,2 °C 70 % 997,2 hPa 0,0 l/m² 0 min 0 min 32 W/m² 16,1 km/h (3 Bft) 97,87 %
22.01.2026 09:42 1,9 °C 1,7 °C -2,2 °C 70 % 997,2 hPa 0,0 l/m² 0 min 0 min 32 W/m² 22,5 km/h (4 Bft) 100,00 %
22.01.2026 09:44 1,9 °C 1,7 °C -2,2 °C 70 % 997,2 hPa 0,0 l/m² 0 min 0 min 32 W/m² 19,3 km/h (3 Bft) 100,00 %
22.01.2026 09:46 2,0 °C 1,7 °C -2,2 °C 70 % 997,3 hPa 0,0 l/m² 0 min 0 min 33 W/m² 12,9 km/h (3 Bft) 100,00 %
22.01.2026 09:48 2,0 °C 1,7 °C -2,2 °C 70 % 997,3 hPa 0,0 l/m² 0 min 0 min 35 W/m² 25,7 km/h (4 Bft) 97,83 %
22.01.2026 09:50 2,1 °C 1,7 °C -2,2 °C 69 % 997,2 hPa 0,0 l/m² 0 min 0 min 36 W/m² 25,7 km/h (4 Bft) 100,00 %
22.01.2026 09:52 2,1 °C 1,7 °C -2,2 °C 69 % 997,2 hPa 0,0 l/m² 0 min 0 min 37 W/m² 12,9 km/h (3 Bft) 100,00 %
22.01.2026 09:54 2,1 °C 1,7 °C -2,2 °C 69 % 997,2 hPa 0,0 l/m² 0 min 0 min 37 W/m² 19,3 km/h (3 Bft) 100,00 %
22.01.2026 09:56 2,2 °C 2,2 °C -2,2 °C 69 % 997,2 hPa 0,0 l/m² 0 min 0 min 37 W/m² 12,9 km/h (3 Bft) 100,00 %
22.01.2026 09:58 2,2 °C 2,2 °C -2,2 °C 69 % 997,2 hPa 0,0 l/m² 0 min 0 min 38 W/m² 22,5 km/h (4 Bft) 100,00 %
22.01.2026 10:00 2,2 °C 2,2 °C -2,2 °C 69 % 997,2 hPa 0,0 l/m² 0 min 0 min 39 W/m² 22,5 km/h (4 Bft) 100,00 %
22.01.2026 10:02 2,3 °C 2,2 °C -2,2 °C 69 % 997,2 hPa 0,0 l/m² 0 min 0 min 40 W/m² 16,1 km/h (3 Bft) 100,00 %
22.01.2026 10:04 2,3 °C 2,2 °C -2,2 °C 69 % 997,2 hPa 0,0 l/m² 0 min 0 min 41 W/m² 22,5 km/h (4 Bft) 100,00 %
22.01.2026 10:06 2,3 °C 2,2 °C -2,2 °C 69 % 997,2 hPa 0,0 l/m² 0 min 0 min 42 W/m² 16,1 km/h (3 Bft) 100,00 %
22.01.2026 10:08 2,4 °C 2,2 °C -2,2 °C 69 % 997,2 hPa 0,0 l/m² 0 min 0 min 42 W/m² 25,7 km/h (4 Bft) 100,00 %
22.01.2026 10:10 2,4 °C 2,2 °C -2,2 °C 68 % 997,1 hPa 0,0 l/m² 0 min 0 min 43 W/m² 16,1 km/h (3 Bft) 97,78 %
22.01.2026 10:12 2,4 °C 2,2 °C -2,2 °C 68 % 997,1 hPa 0,0 l/m² 0 min 0 min 45 W/m² 16,1 km/h (3 Bft) 97,73 %
22.01.2026 10:14 2,5 °C 2,2 °C -2,2 °C 68 % 997,2 hPa 0,0 l/m² 0 min 0 min 46 W/m² 19,3 km/h (3 Bft) 98,08 %
22.01.2026 10:16 2,5 °C 2,2 °C -1,7 °C 68 % 997,2 hPa 0,0 l/m² 0 min 0 min 49 W/m² 19,3 km/h (3 Bft) 100,00 %
22.01.2026 10:18 2,6 °C 2,2 °C -1,7 °C 68 % 997,1 hPa 0,0 l/m² 0 min 0 min 55 W/m² 22,5 km/h (4 Bft) 97,87 %
22.01.2026 10:20 2,6 °C 2,2 °C -1,7 °C 68 % 997,1 hPa 0,0 l/m² 0 min 0 min 57 W/m² 19,3 km/h (3 Bft) 100,00 %
22.01.2026 10:22 2,7 °C 2,2 °C -1,7 °C 68 % 997,0 hPa 0,0 l/m² 0 min 0 min 62 W/m² 19,3 km/h (3 Bft) 100,00 %
22.01.2026 10:24 2,7 °C 2,2 °C -1,7 °C 68 % 997,1 hPa 0,0 l/m² 0 min 0 min 72 W/m² 19,3 km/h (3 Bft) 97,73 %
22.01.2026 10:26 2,8 °C 2,2 °C -1,7 °C 68 % 997,0 hPa 0,0 l/m² 0 min 0 min 89 W/m² 22,5 km/h (4 Bft) 100,00 %
22.01.2026 10:28 2,8 °C 2,2 °C -1,7 °C 68 % 997,1 hPa 0,0 l/m² 0 min 0 min 102 W/m² 19,3 km/h (3 Bft) 97,87 %
22.01.2026 10:30 2,9 °C 2,8 °C -1,7 °C 68 % 997,0 hPa 0,0 l/m² 0 min 0 min 115 W/m² 22,5 km/h (4 Bft) 100,00 %
22.01.2026 10:32 2,9 °C 2,8 °C -1,7 °C 67 % 997,1 hPa 0,0 l/m² 0 min 0 min 117 W/m² 19,3 km/h (3 Bft) 97,87 %
22.01.2026 10:34 3,0 °C 2,8 °C -1,7 °C 67 % 997,1 hPa 0,0 l/m² 0 min 0 min 111 W/m² 19,3 km/h (3 Bft) 97,78 %
22.01.2026 10:36 3,1 °C 2,8 °C -1,7 °C 67 % 997,1 hPa 0,0 l/m² 2 min 0 min 146 W/m² 12,9 km/h (3 Bft) 97,73 %
22.01.2026 10:38 3,1 °C 2,8 °C -1,7 °C 67 % 997,1 hPa 0,0 l/m² 2 min 0 min 160 W/m² 19,3 km/h (3 Bft) 97,87 %
22.01.2026 10:40 3,2 °C 2,8 °C -1,7 °C 67 % 997,1 hPa 0,0 l/m² 2 min 0 min 170 W/m² 22,5 km/h (4 Bft) 97,83 %
22.01.2026 10:42 3,2 °C 2,8 °C -1,7 °C 67 % 997,1 hPa 0,0 l/m² 2 min 0 min 180 W/m² 22,5 km/h (4 Bft) 98,08 %
22.01.2026 10:44 3,3 °C 2,8 °C -1,7 °C 67 % 997,1 hPa 0,0 l/m² 2 min 0 min 187 W/m² 19,3 km/h (3 Bft) 97,87 %
22.01.2026 10:46 3,3 °C 2,8 °C -1,7 °C 67 % 997,1 hPa 0,0 l/m² 2 min 0 min 195 W/m² 22,5 km/h (4 Bft) 97,83 %
22.01.2026 10:48 3,4 °C 3,3 °C -1,7 °C 67 % 997,2 hPa 0,0 l/m² 2 min 0 min 202 W/m² 19,3 km/h (3 Bft) 97,87 %
22.01.2026 10:50 3,4 °C 3,3 °C -1,7 °C 66 % 997,2 hPa 0,0 l/m² 2 min 0 min 208 W/m² 19,3 km/h (3 Bft) 95,74 %
22.01.2026 10:52 3,5 °C 3,3 °C -1,7 °C 66 % 997,2 hPa 0,0 l/m² 2 min 0 min 215 W/m² 22,5 km/h (4 Bft) 93,33 %
22.01.2026 10:54 3,6 °C 3,3 °C -1,1 °C 67 % 997,2 hPa 0,0 l/m² 2 min 0 min 222 W/m² 9,7 km/h (2 Bft) 97,83 %
22.01.2026 10:56 3,7 °C 3,9 °C -1,1 °C 67 % 997,2 hPa 0,0 l/m² 2 min 0 min 226 W/m² 16,1 km/h (3 Bft) 97,73 %
22.01.2026 10:58 3,7 °C 3,9 °C -1,1 °C 67 % 997,2 hPa 0,0 l/m² 2 min 0 min 232 W/m² 16,1 km/h (3 Bft) 94,23 %
22.01.2026 11:00 3,8 °C 4,4 °C -1,1 °C 66 % 997,3 hPa 0,0 l/m² 2 min 0 min 235 W/m² 16,1 km/h (3 Bft) 97,87 %
22.01.2026 11:02 3,9 °C 5,0 °C -1,1 °C 66 % 997,2 hPa 0,0 l/m² 2 min 0 min 235 W/m² 16,1 km/h (3 Bft) 97,87 %
22.01.2026 11:04 3,9 °C 5,6 °C -1,1 °C 66 % 997,2 hPa 0,0 l/m² 2 min 0 min 246 W/m² 16,1 km/h (3 Bft) 95,74 %
22.01.2026 11:08 4,1 °C 7,8 °C -1,1 °C 66 % 997,3 hPa 0,0 l/m² 4 min 0 min 261 W/m² 19,3 km/h (3 Bft) 94,51 %
22.01.2026 11:10 4,2 °C 8,3 °C -1,1 °C 65 % 997,3 hPa 0,0 l/m² 2 min 0 min 268 W/m² 16,1 km/h (3 Bft) 95,65 %
22.01.2026 11:12 4,2 °C 8,9 °C -1,1 °C 65 % 997,2 hPa 0,0 l/m² 2 min 0 min 273 W/m² 16,1 km/h (3 Bft) 97,83 %
22.01.2026 11:14 4,3 °C 9,4 °C -1,1 °C 65 % 997,2 hPa 0,0 l/m² 2 min 0 min 273 W/m² 19,3 km/h (3 Bft) 95,00 %
22.01.2026 11:16 4,3 °C 10,0 °C -1,1 °C 65 % 997,2 hPa 0,0 l/m² 2 min 0 min 269 W/m² 12,9 km/h (3 Bft) 94,92 %
22.01.2026 11:18 4,4 °C 10,6 °C -1,1 °C 65 % 997,2 hPa 0,0 l/m² 2 min 0 min 263 W/m² 9,7 km/h (2 Bft) 95,74 %
22.01.2026 11:20 4,4 °C 10,0 °C -1,1 °C 65 % 997,2 hPa 0,0 l/m² 2 min 0 min 260 W/m² 12,9 km/h (3 Bft) 95,12 %
22.01.2026 11:22 4,5 °C 10,0 °C -1,1 °C 65 % 997,2 hPa 0,0 l/m² 2 min 0 min 261 W/m² 16,1 km/h (3 Bft) 96,15 %
22.01.2026 11:24 4,6 °C 10,6 °C -1,1 °C 65 % 997,2 hPa 0,0 l/m² 2 min 0 min 250 W/m² 12,9 km/h (3 Bft) 95,74 %
22.01.2026 11:26 4,6 °C 10,6 °C -0,6 °C 66 % 997,2 hPa 0,0 l/m² 2 min 0 min 263 W/m² 16,1 km/h (3 Bft) 95,74 %
22.01.2026 11:28 4,7 °C 10,0 °C -0,6 °C 66 % 997,2 hPa 0,0 l/m² 2 min 0 min 274 W/m² 19,3 km/h (3 Bft) 95,56 %
22.01.2026 11:30 4,7 °C 9,4 °C -0,6 °C 65 % 997,2 hPa 0,0 l/m² 2 min 0 min 273 W/m² 16,1 km/h (3 Bft) 97,73 %
22.01.2026 11:32 4,8 °C 9,4 °C -0,6 °C 65 % 997,2 hPa 0,0 l/m² 2 min 0 min 270 W/m² 16,1 km/h (3 Bft) 98,04 %
22.01.2026 11:34 4,8 °C 9,4 °C -0,6 °C 65 % 997,3 hPa 0,0 l/m² 2 min 0 min 236 W/m² 16,1 km/h (3 Bft) 93,62 %
22.01.2026 11:36 4,8 °C 9,4 °C -0,6 °C 65 % 997,2 hPa 0,0 l/m² 2 min 0 min 281 W/m² 19,3 km/h (3 Bft) 97,87 %
22.01.2026 11:38 4,8 °C 9,4 °C -0,6 °C 65 % 997,2 hPa 0,0 l/m² 2 min 0 min 281 W/m² 12,9 km/h (3 Bft) 100,00 %
22.01.2026 11:40 4,8 °C 10,0 °C -0,6 °C 65 % 997,1 hPa 0,0 l/m² 2 min 0 min 279 W/m² 16,1 km/h (3 Bft) 97,87 %
22.01.2026 11:42 4,8 °C 10,0 °C -0,6 °C 65 % 997,1 hPa 0,0 l/m² 2 min 0 min 277 W/m² 19,3 km/h (3 Bft) 100,00 %
22.01.2026 11:44 4,8 °C 10,0 °C -0,6 °C 65 % 997,0 hPa 0,0 l/m² 2 min 0 min 279 W/m² 16,1 km/h (3 Bft) 95,56 %
22.01.2026 11:46 4,9 °C 10,0 °C -0,6 °C 65 % 997,0 hPa 0,0 l/m² 2 min 0 min 269 W/m² 19,3 km/h (3 Bft) 100,00 %
22.01.2026 11:48 4,9 °C 10,0 °C -0,6 °C 65 % 997,0 hPa 0,0 l/m² 0 min 0 min 157 W/m² 12,9 km/h (3 Bft) 100,00 %
22.01.2026 11:50 4,9 °C 10,0 °C -0,6 °C 65 % 997,0 hPa 0,0 l/m² 2 min 0 min 250 W/m² 12,9 km/h (3 Bft) 100,00 %
22.01.2026 11:52 4,9 °C 9,4 °C -0,6 °C 65 % 996,9 hPa 0,0 l/m² 2 min 0 min 266 W/m² 16,1 km/h (3 Bft) 95,74 %
22.01.2026 11:54 4,9 °C 8,3 °C -0,6 °C 65 % 996,9 hPa 0,0 l/m² 2 min 0 min 215 W/m² 16,1 km/h (3 Bft) 100,00 %
22.01.2026 11:56 4,9 °C 8,3 °C -0,6 °C 65 % 996,9 hPa 0,0 l/m² 0 min 0 min 176 W/m² 25,7 km/h (4 Bft) 100,00 %
22.01.2026 11:58 5,0 °C 9,4 °C -0,6 °C 65 % 997,0 hPa 0,0 l/m² 0 min 0 min 133 W/m² 9,7 km/h (2 Bft) 97,83 %
22.01.2026 12:00 5,1 °C 9,4 °C -0,6 °C 65 % 996,9 hPa 0,0 l/m² 0 min 0 min 97 W/m² 12,9 km/h (3 Bft) 100,00 %
22.01.2026 12:02 5,1 °C 9,4 °C 0,0 °C 65 % 996,8 hPa 0,0 l/m² 0 min 0 min 93 W/m² 16,1 km/h (3 Bft) 98,04 %
22.01.2026 12:04 5,1 °C 8,3 °C 0,0 °C 65 % 996,8 hPa 0,0 l/m² 0 min 0 min 91 W/m² 16,1 km/h (3 Bft) 100,00 %
22.01.2026 12:08 5,1 °C 6,7 °C 0,0 °C 65 % 996,8 hPa 0,0 l/m² 4 min 0 min 190 W/m² 12,9 km/h (3 Bft) 100,00 %
22.01.2026 12:12 5,1 °C 6,1 °C 0,0 °C 65 % 996,8 hPa 0,0 l/m² 0 min 0 min 106 W/m² 6,4 km/h (2 Bft) 93,62 %
22.01.2026 12:16 5,1 °C 7,8 °C 0,0 °C 65 % 996,9 hPa 0,0 l/m² 4 min 0 min 186 W/m² 12,9 km/h (3 Bft) 100,00 %
22.01.2026 12:18 5,2 °C 8,3 °C 0,0 °C 65 % 997,0 hPa 0,0 l/m² 2 min 0 min 289 W/m² 12,9 km/h (3 Bft) 100,00 %
22.01.2026 12:20 5,2 °C 8,3 °C 0,0 °C 65 % 997,0 hPa 0,0 l/m² 2 min 0 min 205 W/m² 16,1 km/h (3 Bft) 100,00 %
22.01.2026 12:22 5,2 °C 8,3 °C 0,0 °C 65 % 996,9 hPa 0,0 l/m² 2 min 0 min 218 W/m² 6,4 km/h (2 Bft) 92,16 %
22.01.2026 12:24 5,3 °C 8,9 °C 0,0 °C 65 % 996,9 hPa 0,0 l/m² 2 min 0 min 242 W/m² 16,1 km/h (3 Bft) 95,74 %
22.01.2026 12:26 5,3 °C 8,9 °C 0,0 °C 65 % 996,9 hPa 0,0 l/m² 2 min 0 min 277 W/m² 12,9 km/h (3 Bft) 97,87 %
22.01.2026 12:28 5,3 °C 10,0 °C 0,0 °C 65 % 996,9 hPa 0,0 l/m² 2 min 0 min 331 W/m² 12,9 km/h (3 Bft) 95,65 %
22.01.2026 12:30 5,4 °C 10,6 °C 0,6 °C 65 % 996,8 hPa 0,0 l/m² 2 min 0 min 334 W/m² 12,9 km/h (3 Bft) 95,45 %
22.01.2026 12:32 5,4 °C 11,1 °C 0,0 °C 64 % 996,8 hPa 0,0 l/m² 2 min 0 min 336 W/m² 9,7 km/h (2 Bft) 95,56 %
22.01.2026 12:34 5,5 °C 10,6 °C 0,6 °C 64 % 996,8 hPa 0,0 l/m² 2 min 0 min 330 W/m² 12,9 km/h (3 Bft) 96,15 %
22.01.2026 12:36 5,6 °C 11,1 °C 0,6 °C 64 % 996,8 hPa 0,0 l/m² 2 min 0 min 329 W/m² 12,9 km/h (3 Bft) 95,65 %
22.01.2026 12:38 5,6 °C 10,6 °C 0,6 °C 64 % 996,7 hPa 0,0 l/m² 2 min 0 min 326 W/m² 12,9 km/h (3 Bft) 93,33 %
22.01.2026 12:40 5,7 °C 11,7 °C 0,6 °C 65 % 996,7 hPa 0,0 l/m² 2 min 0 min 323 W/m² 12,9 km/h (3 Bft) 94,74 %
22.01.2026 12:42 5,7 °C 11,1 °C 0,6 °C 64 % 996,7 hPa 0,0 l/m² 2 min 0 min 308 W/m² 19,3 km/h (3 Bft) 96,55 %
22.01.2026 12:44 5,8 °C 11,1 °C 0,6 °C 65 % 996,7 hPa 0,0 l/m² 2 min 0 min 325 W/m² 12,9 km/h (3 Bft) 95,74 %
22.01.2026 12:46 5,8 °C 11,7 °C 0,6 °C 65 % 996,7 hPa 0,0 l/m² 2 min 0 min 324 W/m² 12,9 km/h (3 Bft) 95,24 %
22.01.2026 12:48 5,9 °C 11,7 °C 0,6 °C 64 % 996,7 hPa 0,0 l/m² 2 min 0 min 307 W/m² 19,3 km/h (3 Bft) 95,00 %
22.01.2026 12:50 5,9 °C 11,7 °C 0,6 °C 64 % 996,6 hPa 0,0 l/m² 2 min 0 min 319 W/m² 19,3 km/h (3 Bft) 93,22 %
22.01.2026 12:52 6,0 °C 12,2 °C 0,6 °C 64 % 996,6 hPa 0,0 l/m² 2 min 0 min 349 W/m² 16,1 km/h (3 Bft) 93,62 %
22.01.2026 12:54 6,1 °C 12,2 °C 0,6 °C 64 % 996,6 hPa 0,0 l/m² 2 min 0 min 353 W/m² 19,3 km/h (3 Bft) 95,35 %
22.01.2026 12:56 6,1 °C 12,8 °C 0,6 °C 64 % 996,7 hPa 0,0 l/m² 2 min 0 min 350 W/m² 6,4 km/h (2 Bft) 93,88 %
22.01.2026 12:58 6,2 °C 12,8 °C 0,6 °C 63 % 996,6 hPa 0,0 l/m² 2 min 0 min 343 W/m² 19,3 km/h (3 Bft) 95,65 %
22.01.2026 13:00 6,2 °C 13,3 °C 0,6 °C 63 % 996,7 hPa 0,0 l/m² 2 min 0 min 345 W/m² 12,9 km/h (3 Bft) 95,92 %
22.01.2026 13:02 6,3 °C 12,8 °C 0,6 °C 63 % 996,7 hPa 0,0 l/m² 2 min 0 min 350 W/m² 16,1 km/h (3 Bft) 93,48 %
22.01.2026 13:04 6,3 °C 12,8 °C 0,6 °C 63 % 996,6 hPa 0,0 l/m² 2 min 0 min 333 W/m² 16,1 km/h (3 Bft) 94,59 %
22.01.2026 13:06 6,3 °C 11,7 °C 0,6 °C 63 % 996,6 hPa 0,0 l/m² 2 min 0 min 301 W/m² 16,1 km/h (3 Bft) 98,28 %
22.01.2026 13:08 6,3 °C 11,7 °C 0,6 °C 63 % 996,6 hPa 0,0 l/m² 2 min 0 min 275 W/m² 12,9 km/h (3 Bft) 97,67 %
22.01.2026 13:10 6,4 °C 11,7 °C 0,6 °C 63 % 996,5 hPa 0,0 l/m² 2 min 0 min 262 W/m² 16,1 km/h (3 Bft) 96,08 %
22.01.2026 13:12 6,4 °C 11,1 °C 0,6 °C 63 % 996,5 hPa 0,0 l/m² 2 min 0 min 276 W/m² 16,1 km/h (3 Bft) 97,67 %
22.01.2026 13:14 6,4 °C 11,7 °C 0,6 °C 63 % 996,5 hPa 0,0 l/m² 2 min 0 min 309 W/m² 16,1 km/h (3 Bft) 98,04 %
22.01.2026 13:16 6,4 °C 12,2 °C 0,6 °C 63 % 996,4 hPa 0,0 l/m² 2 min 0 min 331 W/m² 12,9 km/h (3 Bft) 95,45 %
22.01.2026 13:18 6,4 °C 12,2 °C 1,1 °C 63 % 996,4 hPa 0,0 l/m² 2 min 0 min 310 W/m² 16,1 km/h (3 Bft) 97,37 %
22.01.2026 13:20 6,5 °C 11,7 °C 1,1 °C 63 % 996,4 hPa 0,0 l/m² 2 min 0 min 246 W/m² 12,9 km/h (3 Bft) 96,49 %
22.01.2026 13:22 6,5 °C 11,1 °C 1,1 °C 63 % 996,4 hPa 0,0 l/m² 2 min 0 min 260 W/m² 19,3 km/h (3 Bft) 97,22 %
22.01.2026 13:24 6,5 °C 11,7 °C 1,1 °C 63 % 996,4 hPa 0,0 l/m² 2 min 0 min 285 W/m² 16,1 km/h (3 Bft) 96,55 %
22.01.2026 13:26 6,5 °C 11,1 °C 0,6 °C 63 % 996,4 hPa 0,0 l/m² 2 min 0 min 244 W/m² 9,7 km/h (2 Bft) 100,00 %
22.01.2026 13:28 6,5 °C 10,6 °C 1,1 °C 63 % 996,3 hPa 0,0 l/m² 2 min 0 min 248 W/m² 16,1 km/h (3 Bft) 96,55 %
22.01.2026 13:30 6,5 °C 11,1 °C 1,1 °C 63 % 996,4 hPa 0,0 l/m² 2 min 0 min 248 W/m² 12,9 km/h (3 Bft) 97,73 %
22.01.2026 13:32 6,6 °C 11,7 °C 1,1 °C 63 % 996,4 hPa 0,0 l/m² 2 min 0 min 241 W/m² 12,9 km/h (3 Bft) 96,00 %
22.01.2026 13:34 6,6 °C 10,6 °C 1,1 °C 63 % 996,4 hPa 0,0 l/m² 2 min 0 min 203 W/m² 19,3 km/h (3 Bft) 97,73 %
22.01.2026 13:36 6,6 °C 10,6 °C 1,1 °C 63 % 996,4 hPa 0,0 l/m² 2 min 0 min 206 W/m² 19,3 km/h (3 Bft) 96,00 %
22.01.2026 13:38 6,7 °C 10,6 °C 1,1 °C 63 % 996,3 hPa 0,0 l/m² 2 min 0 min 206 W/m² 12,9 km/h (3 Bft) 97,73 %
22.01.2026 13:40 6,7 °C 10,6 °C 1,1 °C 63 % 996,3 hPa 0,0 l/m² 2 min 0 min 221 W/m² 9,7 km/h (2 Bft) 97,37 %
22.01.2026 13:42 6,7 °C 10,6 °C 1,1 °C 63 % 996,3 hPa 0,0 l/m² 2 min 0 min 225 W/m² 12,9 km/h (3 Bft) 98,28 %
22.01.2026 13:44 6,8 °C 11,1 °C 1,1 °C 63 % 996,3 hPa 0,0 l/m² 2 min 0 min 240 W/m² 12,9 km/h (3 Bft) 97,62 %
22.01.2026 13:46 6,8 °C 11,1 °C 1,1 °C 62 % 996,3 hPa 0,0 l/m² 2 min 0 min 265 W/m² 16,1 km/h (3 Bft) 98,08 %
22.01.2026 13:48 6,8 °C 12,2 °C 1,1 °C 62 % 996,3 hPa 0,0 l/m² 2 min 0 min 283 W/m² 12,9 km/h (3 Bft) 95,35 %
22.01.2026 13:50 6,9 °C 12,2 °C 1,1 °C 62 % 996,3 hPa 0,0 l/m² 2 min 0 min 292 W/m² 12,9 km/h (3 Bft) 98,04 %
22.01.2026 13:52 6,9 °C 12,8 °C 1,1 °C 62 % 996,3 hPa 0,0 l/m² 2 min 0 min 294 W/m² 6,4 km/h (2 Bft) 95,45 %
22.01.2026 13:54 7,0 °C 13,3 °C 1,1 °C 63 % 996,3 hPa 0,0 l/m² 2 min 0 min 290 W/m² 12,9 km/h (3 Bft) 100,00 %
22.01.2026 13:56 7,1 °C 12,8 °C 1,1 °C 63 % 996,3 hPa 0,0 l/m² 2 min 0 min 287 W/m² 16,1 km/h (3 Bft) 96,43 %
22.01.2026 13:58 7,1 °C 11,7 °C 1,7 °C 63 % 996,3 hPa 0,0 l/m² 2 min 0 min 280 W/m² 12,9 km/h (3 Bft) 97,30 %
22.01.2026 14:00 7,2 °C 11,7 °C 1,7 °C 62 % 996,3 hPa 0,0 l/m² 2 min 0 min 272 W/m² 16,1 km/h (3 Bft) 96,61 %
22.01.2026 14:02 7,2 °C 11,1 °C 1,7 °C 62 % 996,2 hPa 0,0 l/m² 2 min 0 min 252 W/m² 12,9 km/h (3 Bft) 97,62 %
22.01.2026 14:04 7,3 °C 10,0 °C 1,7 °C 62 % 996,3 hPa 0,0 l/m² 2 min 0 min 211 W/m² 19,3 km/h (3 Bft) 98,04 %
22.01.2026 14:06 7,3 °C 9,4 °C 1,7 °C 62 % 996,2 hPa 0,0 l/m² 0 min 0 min 162 W/m² 12,9 km/h (3 Bft) 97,73 %
22.01.2026 14:08 7,3 °C 8,9 °C 1,1 °C 62 % 996,2 hPa 0,0 l/m² 0 min 0 min 141 W/m² 9,7 km/h (2 Bft) 98,00 %
22.01.2026 14:10 7,3 °C 8,3 °C 1,1 °C 62 % 996,2 hPa 0,0 l/m² 0 min 0 min 136 W/m² 12,9 km/h (3 Bft) 95,56 %
22.01.2026 14:12 7,2 °C 8,3 °C 1,1 °C 62 % 996,2 hPa 0,0 l/m² 0 min 0 min 150 W/m² 12,9 km/h (3 Bft) 100,00 %
22.01.2026 14:14 7,2 °C 7,8 °C 1,1 °C 62 % 996,2 hPa 0,0 l/m² 0 min 0 min 136 W/m² 12,9 km/h (3 Bft) 94,83 %
22.01.2026 14:16 7,2 °C 7,8 °C 1,1 °C 62 % 996,1 hPa 0,0 l/m² 0 min 0 min 130 W/m² 16,1 km/h (3 Bft) 94,44 %
22.01.2026 14:18 7,1 °C 7,2 °C 1,1 °C 62 % 996,1 hPa 0,0 l/m² 0 min 0 min 111 W/m² 12,9 km/h (3 Bft) 98,28 %
22.01.2026 14:20 7,1 °C 7,2 °C 1,1 °C 62 % 996,1 hPa 0,0 l/m² 0 min 0 min 98 W/m² 12,9 km/h (3 Bft) 95,35 %
22.01.2026 14:22 7,1 °C 7,2 °C 1,1 °C 63 % 996,1 hPa 0,0 l/m² 0 min 0 min 102 W/m² 16,1 km/h (3 Bft) 98,04 %
22.01.2026 14:24 7,0 °C 7,2 °C 1,1 °C 63 % 996,1 hPa 0,0 l/m² 0 min 0 min 102 W/m² 9,7 km/h (2 Bft) 97,73 %
22.01.2026 14:26 6,9 °C 7,2 °C 1,1 °C 63 % 996,1 hPa 0,0 l/m² 0 min 0 min 102 W/m² 6,4 km/h (2 Bft) 96,00 %
22.01.2026 14:28 6,9 °C 6,7 °C 1,1 °C 63 % 996,1 hPa 0,0 l/m² 0 min 0 min 96 W/m² 6,4 km/h (2 Bft) 97,78 %
22.01.2026 14:30 6,9 °C 6,7 °C 1,1 °C 63 % 996,1 hPa 0,0 l/m² 0 min 0 min 90 W/m² 12,9 km/h (3 Bft) 100,00 %
22.01.2026 14:32 6,8 °C 6,7 °C 1,1 °C 64 % 996,1 hPa 0,0 l/m² 0 min 0 min 87 W/m² 6,4 km/h (2 Bft) 100,00 %
22.01.2026 14:34 6,8 °C 6,7 °C 1,1 °C 64 % 996,1 hPa 0,0 l/m² 0 min 0 min 88 W/m² 9,7 km/h (2 Bft) 100,00 %
22.01.2026 14:36 6,7 °C 6,7 °C 1,1 °C 64 % 996,1 hPa 0,0 l/m² 0 min 0 min 89 W/m² 6,4 km/h (2 Bft) 100,00 %
22.01.2026 14:38 6,7 °C 6,7 °C 1,1 °C 64 % 996,1 hPa 0,0 l/m² 0 min 0 min 85 W/m² 6,4 km/h (2 Bft) 100,00 %
22.01.2026 14:40 6,6 °C 6,7 °C 1,1 °C 64 % 996,1 hPa 0,0 l/m² 0 min 0 min 84 W/m² 12,9 km/h (3 Bft) 97,87 %
22.01.2026 14:42 6,6 °C 6,7 °C 1,1 °C 64 % 996,0 hPa 0,0 l/m² 0 min 0 min 83 W/m² 12,9 km/h (3 Bft) 100,00 %
22.01.2026 14:44 6,5 °C 6,7 °C 1,1 °C 65 % 996,0 hPa 0,0 l/m² 0 min 0 min 89 W/m² 3,2 km/h (1 Bft) 93,88 %
22.01.2026 14:46 6,5 °C 6,7 °C 1,1 °C 65 % 995,9 hPa 0,0 l/m² 0 min 0 min 99 W/m² 6,4 km/h (2 Bft) 98,00 %
22.01.2026 14:48 6,4 °C 6,7 °C 0,6 °C 66 % 995,9 hPa 0,0 l/m² 0 min 0 min 102 W/m² 6,4 km/h (2 Bft) 100,00 %
22.01.2026 14:50 6,4 °C 6,7 °C 1,1 °C 66 % 996,0 hPa 0,0 l/m² 0 min 0 min 110 W/m² 6,4 km/h (2 Bft) 100,00 %
22.01.2026 14:52 6,4 °C 7,2 °C 1,1 °C 66 % 996,0 hPa 0,0 l/m² 0 min 0 min 128 W/m² 3,2 km/h (1 Bft) 97,87 %
22.01.2026 14:54 6,4 °C 7,8 °C 1,1 °C 67 % 996,0 hPa 0,0 l/m² 2 min 0 min 151 W/m² 6,4 km/h (2 Bft) 100,00 %
22.01.2026 14:56 6,4 °C 7,8 °C 1,1 °C 67 % 996,1 hPa 0,0 l/m² 2 min 0 min 148 W/m² 9,7 km/h (2 Bft) 100,00 %
22.01.2026 14:58 6,4 °C 8,3 °C 1,1 °C 67 % 996,1 hPa 0,0 l/m² 2 min 0 min 139 W/m² 6,4 km/h (2 Bft) 100,00 %
22.01.2026 15:00 6,4 °C 7,8 °C 1,1 °C 67 % 996,1 hPa 0,0 l/m² 0 min 0 min 124 W/m² 6,4 km/h (2 Bft) 98,31 %
22.01.2026 15:02 6,5 °C 7,8 °C 1,1 °C 67 % 996,1 hPa 0,0 l/m² 0 min 0 min 116 W/m² 3,2 km/h (1 Bft) 100,00 %
22.01.2026 15:04 6,5 °C 7,8 °C 1,1 °C 67 % 996,0 hPa 0,0 l/m² 0 min 0 min 108 W/m² 6,4 km/h (2 Bft) 100,00 %
22.01.2026 15:08 6,5 °C 7,2 °C 1,1 °C 67 % 996,0 hPa 0,0 l/m² 0 min 0 min 98 W/m² 6,4 km/h (2 Bft) 98,92 %
22.01.2026 15:10 6,5 °C 7,2 °C 1,1 °C 67 % 996,1 hPa 0,0 l/m² 0 min 0 min 107 W/m² 3,2 km/h (1 Bft) 97,87 %
22.01.2026 15:12 6,5 °C 7,2 °C 1,1 °C 67 % 996,1 hPa 0,0 l/m² 0 min 0 min 115 W/m² 3,2 km/h (1 Bft) 100,00 %
22.01.2026 15:14 6,5 °C 7,2 °C 1,1 °C 67 % 996,1 hPa 0,0 l/m² 0 min 0 min 108 W/m² 12,9 km/h (3 Bft) 100,00 %
22.01.2026 15:16 6,5 °C 7,8 °C 1,1 °C 67 % 996,2 hPa 0,0 l/m² 2 min 0 min 117 W/m² 3,2 km/h (1 Bft) 98,28 %
22.01.2026 15:18 6,5 °C 7,8 °C 1,1 °C 67 % 996,1 hPa 0,0 l/m² 2 min 0 min 129 W/m² 6,4 km/h (2 Bft) 97,67 %
22.01.2026 15:20 6,6 °C 7,2 °C 1,1 °C 67 % 996,1 hPa 0,0 l/m² 2 min 0 min 140 W/m² 3,2 km/h (1 Bft) 95,74 %
22.01.2026 15:22 6,6 °C 7,2 °C 1,1 °C 67 % 996,1 hPa 0,0 l/m² 2 min 0 min 142 W/m² 9,7 km/h (2 Bft) 97,87 %
22.01.2026 15:24 6,6 °C 6,7 °C 1,1 °C 66 % 996,0 hPa 0,0 l/m² 2 min 0 min 126 W/m² 3,2 km/h (1 Bft) 98,04 %
22.01.2026 15:26 6,6 °C 6,7 °C 1,1 °C 66 % 996,0 hPa 0,0 l/m² 2 min 0 min 118 W/m² 9,7 km/h (2 Bft) 95,56 %
22.01.2026 15:28 6,7 °C 6,7 °C 1,1 °C 66 % 996,0 hPa 0,0 l/m² 2 min 0 min 107 W/m² 12,9 km/h (3 Bft) 95,74 %
22.01.2026 15:30 6,7 °C 6,1 °C 1,1 °C 66 % 996,0 hPa 0,0 l/m² 0 min 0 min 99 W/m² 12,9 km/h (3 Bft) 97,78 %
22.01.2026 15:32 6,7 °C 6,1 °C 1,1 °C 66 % 996,0 hPa 0,0 l/m² 0 min 0 min 99 W/m² 9,7 km/h (2 Bft) 97,87 %
22.01.2026 15:34 6,6 °C 6,1 °C 1,1 °C 66 % 996,0 hPa 0,0 l/m² 2 min 0 min 104 W/m² 12,9 km/h (3 Bft) 97,92 %
22.01.2026 15:36 6,6 °C 6,1 °C 1,1 °C 66 % 996,0 hPa 0,0 l/m² 0 min 0 min 96 W/m² 6,4 km/h (2 Bft) 95,65 %
22.01.2026 15:38 6,6 °C 6,1 °C 1,1 °C 66 % 996,0 hPa 0,0 l/m² 0 min 0 min 87 W/m² 6,4 km/h (2 Bft) 95,74 %
22.01.2026 15:40 6,6 °C 6,1 °C 1,1 °C 66 % 996,0 hPa 0,0 l/m² 0 min 0 min 83 W/m² 6,4 km/h (2 Bft) 97,87 %
22.01.2026 15:42 6,6 °C 6,7 °C 1,1 °C 66 % 996,0 hPa 0,0 l/m² 0 min 0 min 81 W/m² 6,4 km/h (2 Bft) 97,83 %
22.01.2026 15:44 6,6 °C 6,1 °C 1,1 °C 66 % 996,0 hPa 0,0 l/m² 0 min 0 min 76 W/m² 6,4 km/h (2 Bft) 94,00 %
22.01.2026 15:46 6,6 °C 6,1 °C 1,1 °C 66 % 996,0 hPa 0,0 l/m² 0 min 0 min 75 W/m² 3,2 km/h (1 Bft) 95,74 %
22.01.2026 15:48 6,6 °C 6,1 °C 1,1 °C 66 % 996,0 hPa 0,0 l/m² 0 min 0 min 78 W/m² 12,9 km/h (3 Bft) 91,43 %
22.01.2026 15:50 6,6 °C 6,1 °C 1,1 °C 66 % 995,9 hPa 0,0 l/m² 0 min 0 min 81 W/m² 6,4 km/h (2 Bft) 94,44 %
22.01.2026 15:52 6,6 °C 6,1 °C 1,1 °C 66 % 995,9 hPa 0,0 l/m² 0 min 0 min 78 W/m² 6,4 km/h (2 Bft) 96,08 %
22.01.2026 15:54 6,6 °C 6,1 °C 1,1 °C 66 % 995,9 hPa 0,0 l/m² 0 min 0 min 76 W/m² 6,4 km/h (2 Bft) 95,74 %
22.01.2026 15:56 6,6 °C 6,1 °C 1,1 °C 66 % 995,9 hPa 0,0 l/m² 0 min 0 min 76 W/m² 6,4 km/h (2 Bft) 95,74 %
22.01.2026 15:58 6,6 °C 6,1 °C 1,1 °C 66 % 995,9 hPa 0,0 l/m² 0 min 0 min 74 W/m² 6,4 km/h (2 Bft) 93,62 %
22.01.2026 16:00 6,6 °C 6,1 °C 1,1 °C 67 % 995,9 hPa 0,0 l/m² 0 min 0 min 72 W/m² 6,4 km/h (2 Bft) 97,87 %
22.01.2026 16:02 6,6 °C 6,1 °C 1,1 °C 67 % 996,0 hPa 0,0 l/m² 0 min 0 min 69 W/m² 6,4 km/h (2 Bft) 93,48 %
22.01.2026 16:04 6,6 °C 6,1 °C 1,1 °C 67 % 996,0 hPa 0,0 l/m² 0 min 0 min 64 W/m² 12,9 km/h (3 Bft) 97,67 %
22.01.2026 16:08 6,5 °C 6,1 °C 1,1 °C 67 % 996,1 hPa 0,0 l/m² 0 min 0 min 60 W/m² 6,4 km/h (2 Bft) 96,81 %
22.01.2026 16:10 6,5 °C 6,1 °C 1,1 °C 67 % 996,0 hPa 0,0 l/m² 0 min 0 min 55 W/m² 12,9 km/h (3 Bft) 95,74 %
22.01.2026 16:12 6,5 °C 6,1 °C 1,1 °C 67 % 996,0 hPa 0,0 l/m² 0 min 0 min 52 W/m² 9,7 km/h (2 Bft) 95,74 %
22.01.2026 16:14 6,5 °C 6,1 °C 1,1 °C 67 % 996,0 hPa 0,0 l/m² 0 min 0 min 47 W/m² 6,4 km/h (2 Bft) 98,11 %
22.01.2026 16:16 6,5 °C 6,1 °C 1,1 °C 67 % 996,1 hPa 0,0 l/m² 0 min 0 min 45 W/m² 6,4 km/h (2 Bft) 92,50 %
22.01.2026 16:18 6,5 °C 6,1 °C 1,1 °C 67 % 996,1 hPa 0,0 l/m² 0 min 0 min 43 W/m² 3,2 km/h (1 Bft) 97,87 %
22.01.2026 16:20 6,5 °C 6,1 °C 1,1 °C 68 % 996,1 hPa 0,0 l/m² 0 min 0 min 40 W/m² 6,4 km/h (2 Bft) 100,00 %
22.01.2026 16:22 6,5 °C 6,1 °C 1,1 °C 68 % 996,1 hPa 0,0 l/m² 0 min 0 min 39 W/m² 3,2 km/h (1 Bft) 100,00 %
22.01.2026 16:24 6,5 °C 6,1 °C 1,1 °C 68 % 996,1 hPa 0,0 l/m² 0 min 0 min 37 W/m² 6,4 km/h (2 Bft) 97,87 %
22.01.2026 16:26 6,5 °C 5,6 °C 1,1 °C 68 % 996,1 hPa 0,0 l/m² 0 min 0 min 35 W/m² 3,2 km/h (1 Bft) 100,00 %
22.01.2026 16:28 6,4 °C 5,6 °C 1,1 °C 68 % 996,0 hPa 0,0 l/m² 0 min 0 min 33 W/m² 3,2 km/h (1 Bft) 97,87 %
22.01.2026 16:30 6,4 °C 5,6 °C 0,6 °C 68 % 996,0 hPa 0,0 l/m² 0 min 0 min 32 W/m² 3,2 km/h (1 Bft) 95,65 %
22.01.2026 16:32 6,4 °C 5,6 °C 0,6 °C 68 % 996,1 hPa 0,0 l/m² 0 min 0 min 30 W/m² 6,4 km/h (2 Bft) 97,83 %
22.01.2026 16:34 6,4 °C 5,6 °C 0,6 °C 68 % 996,0 hPa 0,0 l/m² 0 min 0 min 29 W/m² 3,2 km/h (1 Bft) 97,87 %
22.01.2026 16:36 6,4 °C 5,6 °C 0,6 °C 69 % 996,0 hPa 0,0 l/m² 0 min 0 min 28 W/m² 3,2 km/h (1 Bft) 97,83 %
22.01.2026 16:38 6,3 °C 5,6 °C 0,6 °C 68 % 996,0 hPa 0,0 l/m² 0 min 0 min 26 W/m² 6,4 km/h (2 Bft) 97,87 %
22.01.2026 16:40 6,3 °C 5,6 °C 0,6 °C 69 % 996,0 hPa 0,0 l/m² 0 min 0 min 25 W/m² 3,2 km/h (1 Bft) 97,83 %
22.01.2026 16:42 6,3 °C 5,6 °C 0,6 °C 69 % 996,0 hPa 0,0 l/m² 2 min 0 min 24 W/m² 3,2 km/h (1 Bft) 98,21 %
22.01.2026 16:44 6,3 °C 5,0 °C 0,6 °C 69 % 996,0 hPa 0,0 l/m² 0 min 0 min 21 W/m² 3,2 km/h (1 Bft) 93,75 %
22.01.2026 16:48 6,2 °C 5,0 °C 0,6 °C 69 % 996,0 hPa 0,0 l/m² 0 min 0 min 19 W/m² 3,2 km/h (1 Bft) 96,51 %
22.01.2026 16:52 6,1 °C 5,0 °C 0,6 °C 70 % 996,0 hPa 0,0 l/m² 0 min 0 min 17 W/m² 6,4 km/h (2 Bft) 93,62 %
22.01.2026 16:54 6,1 °C 5,0 °C 0,6 °C 70 % 996,1 hPa 0,0 l/m² 0 min 0 min 14 W/m² 6,4 km/h (2 Bft) 97,87 %
22.01.2026 16:56 6,1 °C 5,0 °C 0,6 °C 70 % 996,1 hPa 0,0 l/m² 0 min 0 min 13 W/m² 6,4 km/h (2 Bft) 97,73 %
22.01.2026 16:58 6,0 °C 5,0 °C 0,6 °C 70 % 996,0 hPa 0,0 l/m² 0 min 0 min 12 W/m² 6,4 km/h (2 Bft) 98,00 %
22.01.2026 17:00 5,9 °C 5,0 °C 0,6 °C 70 % 996,1 hPa 0,0 l/m² 0 min 0 min 11 W/m² 6,4 km/h (2 Bft) 97,78 %
22.01.2026 17:02 5,9 °C 5,0 °C 0,6 °C 70 % 996,0 hPa 0,0 l/m² 0 min 0 min 10 W/m² 6,4 km/h (2 Bft) 97,92 %
22.01.2026 17:06 5,8 °C 5,0 °C 0,6 °C 70 % 996,0 hPa 0,0 l/m² 0 min 0 min 8 W/m² 16,1 km/h (3 Bft) 97,12 %
22.01.2026 17:08 5,8 °C 4,4 °C 0,6 °C 70 % 996,0 hPa 0,0 l/m² 0 min 0 min 5 W/m² 12,9 km/h (3 Bft) 97,44 %
22.01.2026 17:10 5,8 °C 4,4 °C 0,6 °C 70 % 996,0 hPa 0,0 l/m² 0 min 0 min 5 W/m² 6,4 km/h (2 Bft) 98,11 %
22.01.2026 17:12 5,7 °C 4,4 °C 0,6 °C 70 % 996,0 hPa 0,0 l/m² 0 min 0 min 0 W/m² 6,4 km/h (2 Bft) 97,30 %
22.01.2026 17:14 5,7 °C 4,4 °C 0,6 °C 71 % 996,0 hPa 0,0 l/m² 0 min 0 min 0 W/m² 6,4 km/h (2 Bft) 98,00 %
22.01.2026 17:16 5,6 °C 4,4 °C 0,6 °C 71 % 996,1 hPa 0,0 l/m² 0 min 0 min 0 W/m² 6,4 km/h (2 Bft) 97,87 %
22.01.2026 17:18 5,6 °C 4,4 °C 0,6 °C 71 % 996,0 hPa 0,0 l/m² 0 min 0 min 0 W/m² 12,9 km/h (3 Bft) 97,83 %
22.01.2026 17:20 5,6 °C 4,4 °C 0,6 °C 71 % 996,1 hPa 0,0 l/m² 0 min 0 min 0 W/m² 12,9 km/h (3 Bft) 97,92 %
22.01.2026 17:22 5,6 °C 4,4 °C 0,0 °C 71 % 996,1 hPa 0,0 l/m² 0 min 0 min 0 W/m² 16,1 km/h (3 Bft) 100,00 %
22.01.2026 17:26 5,4 °C 4,4 °C 0,6 °C 71 % 996,1 hPa 0,0 l/m² 0 min 0 min 0 W/m² 12,9 km/h (3 Bft) 100,00 %
22.01.2026 17:30 5,4 °C 4,4 °C 0,6 °C 71 % 996,2 hPa 0,0 l/m² 0 min 0 min 0 W/m² 16,1 km/h (3 Bft) 97,87 %
22.01.2026 17:34 5,4 °C 4,4 °C 0,6 °C 71 % 996,1 hPa 0,0 l/m² 0 min 0 min 0 W/m² 12,9 km/h (3 Bft) 97,85 %
22.01.2026 17:36 5,3 °C 4,4 °C 0,6 °C 71 % 996,2 hPa 0,0 l/m² 0 min 0 min 0 W/m² 12,9 km/h (3 Bft) 97,87 %
22.01.2026 17:37 5,3 °C 4,4 °C 0,0 °C 71 % 996,2 hPa 0,0 l/m² 0 min 0 min 0 W/m² 6,4 km/h (2 Bft) 97,14 %
22.01.2026 17:42 5,3 °C 4,4 °C 0,0 °C 71 % 996,1 hPa 0,0 l/m² 0 min 0 min 0 W/m² 6,4 km/h (2 Bft) 97,73 %
22.01.2026 17:46 5,2 °C 4,4 °C 0,0 °C 71 % 996,1 hPa 0,0 l/m² 0 min 0 min 0 W/m² 16,1 km/h (3 Bft) 94,74 %
22.01.2026 17:48 5,2 °C 4,4 °C 0,0 °C 71 % 996,1 hPa 0,0 l/m² 0 min 0 min 0 W/m² 12,9 km/h (3 Bft) 97,92 %
22.01.2026 17:50 5,2 °C 4,4 °C 0,0 °C 72 % 996,1 hPa 0,0 l/m² 0 min 0 min 0 W/m² 3,2 km/h (1 Bft) 93,62 %
22.01.2026 17:54 5,1 °C 3,9 °C 0,0 °C 72 % 996,0 hPa 0,0 l/m² 0 min 0 min 0 W/m² 16,1 km/h (3 Bft) 96,67 %
22.01.2026 17:56 5,1 °C 3,9 °C 0,0 °C 72 % 996,1 hPa 0,0 l/m² 0 min 0 min 0 W/m² 16,1 km/h (3 Bft) 95,74 %
22.01.2026 17:58 5,1 °C 3,9 °C 0,0 °C 72 % 996,1 hPa 0,0 l/m² 0 min 0 min 0 W/m² 6,4 km/h (2 Bft) 96,00 %
22.01.2026 18:02 5,1 °C 3,9 °C 0,0 °C 72 % 996,1 hPa 0,0 l/m² 0 min 0 min 0 W/m² 12,9 km/h (3 Bft) 96,63 %
22.01.2026 18:04 5,0 °C 3,9 °C 0,0 °C 72 % 996,1 hPa 0,0 l/m² 0 min 0 min 0 W/m² 12,9 km/h (3 Bft) 97,92 %
22.01.2026 18:08 4,9 °C 3,9 °C 0,0 °C 72 % 996,0 hPa 0,0 l/m² 0 min 0 min 0 W/m² 12,9 km/h (3 Bft) 97,98 %
22.01.2026 18:10 4,9 °C 3,9 °C 0,0 °C 72 % 996,1 hPa 0,0 l/m² 0 min 0 min 0 W/m² 9,7 km/h (2 Bft) 95,65 %
22.01.2026 18:12 4,9 °C 3,9 °C 0,0 °C 72 % 996,1 hPa 0,0 l/m² 0 min 0 min 0 W/m² 6,4 km/h (2 Bft) 97,73 %
22.01.2026 18:16 4,9 °C 3,9 °C 0,0 °C 73 % 996,2 hPa 0,0 l/m² 0 min 0 min 0 W/m² 6,4 km/h (2 Bft) 95,83 %
22.01.2026 18:18 4,8 °C 3,9 °C 0,0 °C 72 % 996,2 hPa 0,0 l/m² 0 min 0 min 0 W/m² 12,9 km/h (3 Bft) 97,83 %
22.01.2026 18:20 4,8 °C 3,9 °C 0,0 °C 73 % 996,1 hPa 0,0 l/m² 0 min 0 min 0 W/m² 6,4 km/h (2 Bft) 97,83 %
22.01.2026 18:22 4,8 °C 3,9 °C 0,0 °C 73 % 996,1 hPa 0,0 l/m² 0 min 0 min 0 W/m² 9,7 km/h (2 Bft) 95,65 %
22.01.2026 18:24 4,8 °C 3,9 °C -0,6 °C 73 % 996,2 hPa 0,0 l/m² 0 min 0 min 0 W/m² 6,4 km/h (2 Bft) 97,78 %
22.01.2026 18:26 4,7 °C 3,3 °C -0,6 °C 73 % 996,1 hPa 0,0 l/m² 0 min 0 min 0 W/m² 6,4 km/h (2 Bft) 97,83 %
22.01.2026 18:28 4,7 °C 3,3 °C -0,6 °C 73 % 996,1 hPa 0,0 l/m² 0 min 0 min 0 W/m² 12,9 km/h (3 Bft) 97,87 %
22.01.2026 18:30 4,7 °C 3,3 °C -0,6 °C 73 % 996,1 hPa 0,0 l/m² 0 min 0 min 0 W/m² 6,4 km/h (2 Bft) 96,23 %
22.01.2026 18:32 4,7 °C 3,3 °C -0,6 °C 73 % 996,1 hPa 0,0 l/m² 0 min 0 min 0 W/m² 16,1 km/h (3 Bft) 95,65 %
22.01.2026 18:36 4,6 °C 3,9 °C -0,6 °C 74 % 996,1 hPa 0,0 l/m² 0 min 0 min 0 W/m² 12,9 km/h (3 Bft) 97,73 %
22.01.2026 18:38 4,6 °C 3,9 °C -0,6 °C 74 % 996,1 hPa 0,0 l/m² 0 min 0 min 0 W/m² 16,1 km/h (3 Bft) 98,11 %
22.01.2026 18:40 4,6 °C 3,9 °C -0,6 °C 74 % 996,1 hPa 0,0 l/m² 0 min 0 min 0 W/m² 12,9 km/h (3 Bft) 97,73 %
22.01.2026 18:42 4,5 °C 3,9 °C -0,6 °C 74 % 996,1 hPa 0,0 l/m² 0 min 0 min 0 W/m² 6,4 km/h (2 Bft) 100,00 %
22.01.2026 18:44 4,5 °C 3,9 °C -0,6 °C 74 % 996,1 hPa 0,0 l/m² 0 min 0 min 0 W/m² 12,9 km/h (3 Bft) 97,73 %
22.01.2026 18:46 4,5 °C 3,9 °C -0,6 °C 74 % 996,1 hPa 0,0 l/m² 0 min 0 min 0 W/m² 12,9 km/h (3 Bft) 100,00 %
22.01.2026 18:48 4,4 °C 3,9 °C -0,6 °C 74 % 996,1 hPa 0,0 l/m² 0 min 0 min 0 W/m² 12,9 km/h (3 Bft) 100,00 %
22.01.2026 18:52 4,4 °C 3,9 °C 0,0 °C 74 % 996,1 hPa 0,0 l/m² 0 min 0 min 0 W/m² 16,1 km/h (3 Bft) 98,94 %
22.01.2026 18:54 4,4 °C 3,9 °C 0,0 °C 74 % 996,1 hPa 0,0 l/m² 0 min 0 min 0 W/m² 12,9 km/h (3 Bft) 100,00 %
22.01.2026 18:56 4,4 °C 3,9 °C 0,0 °C 74 % 996,1 hPa 0,0 l/m² 0 min 0 min 0 W/m² 6,4 km/h (2 Bft) 100,00 %
22.01.2026 18:58 4,4 °C 3,9 °C 0,0 °C 74 % 996,1 hPa 0,0 l/m² 0 min 0 min 0 W/m² 16,1 km/h (3 Bft) 97,96 %
22.01.2026 19:00 4,4 °C 3,9 °C 0,0 °C 75 % 996,1 hPa 0,0 l/m² 0 min 0 min 0 W/m² 16,1 km/h (3 Bft) 100,00 %
22.01.2026 19:02 4,4 °C 3,9 °C 0,0 °C 75 % 996,1 hPa 0,0 l/m² 0 min 0 min 0 W/m² 12,9 km/h (3 Bft) 100,00 %
22.01.2026 19:06 4,4 °C 3,9 °C 0,0 °C 75 % 996,1 hPa 0,0 l/m² 0 min 0 min 0 W/m² 12,9 km/h (3 Bft) 99,09 %
22.01.2026 19:08 4,4 °C 3,9 °C 0,0 °C 75 % 996,1 hPa 0,0 l/m² 0 min 0 min 0 W/m² 16,1 km/h (3 Bft) 97,14 %
22.01.2026 19:10 4,4 °C 3,9 °C 0,0 °C 75 % 996,1 hPa 0,0 l/m² 0 min 0 min 0 W/m² 16,1 km/h (3 Bft) 98,25 %
22.01.2026 19:12 4,4 °C 3,9 °C 0,0 °C 75 % 996,1 hPa 0,0 l/m² 0 min 0 min 0 W/m² 16,1 km/h (3 Bft) 100,00 %
22.01.2026 19:16 4,4 °C 3,9 °C 0,0 °C 75 % 996,2 hPa 0,0 l/m² 0 min 0 min 0 W/m² 16,1 km/h (3 Bft) 100,00 %
22.01.2026 19:18 4,4 °C 3,9 °C 0,0 °C 75 % 996,1 hPa 0,0 l/m² 0 min 0 min 0 W/m² 19,3 km/h (3 Bft) 95,74 %
22.01.2026 19:20 4,4 °C 3,9 °C 0,0 °C 75 % 996,1 hPa 0,0 l/m² 0 min 0 min 0 W/m² 19,3 km/h (3 Bft) 97,78 %
22.01.2026 19:22 4,4 °C 3,9 °C 0,0 °C 75 % 996,1 hPa 0,0 l/m² 0 min 0 min 0 W/m² 16,1 km/h (3 Bft) 97,37 %
22.01.2026 19:24 4,4 °C 3,9 °C 0,0 °C 75 % 996,1 hPa 0,0 l/m² 0 min 0 min 0 W/m² 19,3 km/h (3 Bft) 98,25 %
22.01.2026 19:26 4,4 °C 3,9 °C 0,0 °C 75 % 996,1 hPa 0,0 l/m² 0 min 0 min 0 W/m² 12,9 km/h (3 Bft) 94,59 %
22.01.2026 19:28 4,4 °C 3,9 °C 0,0 °C 75 % 996,1 hPa 0,0 l/m² 0 min 0 min 0 W/m² 19,3 km/h (3 Bft) 95,74 %
22.01.2026 19:30 4,4 °C 3,9 °C 0,0 °C 75 % 996,1 hPa 0,0 l/m² 0 min 0 min 0 W/m² 16,1 km/h (3 Bft) 93,62 %
22.01.2026 19:34 4,4 °C 3,9 °C 0,0 °C 75 % 996,1 hPa 0,0 l/m² 0 min 0 min 0 W/m² 19,3 km/h (3 Bft) 95,00 %
22.01.2026 19:36 4,4 °C 3,9 °C 0,0 °C 75 % 996,2 hPa 0,0 l/m² 0 min 0 min 0 W/m² 22,5 km/h (4 Bft) 95,00 %
22.01.2026 19:38 4,4 °C 3,9 °C 0,0 °C 75 % 996,2 hPa 0,0 l/m² 0 min 0 min 0 W/m² 16,1 km/h (3 Bft) 96,30 %
22.01.2026 19:40 4,4 °C 3,9 °C 0,0 °C 75 % 996,2 hPa 0,0 l/m² 0 min 0 min 0 W/m² 16,1 km/h (3 Bft) 95,00 %
22.01.2026 19:42 4,5 °C 3,9 °C 0,0 °C 75 % 996,2 hPa 0,0 l/m² 0 min 0 min 0 W/m² 16,1 km/h (3 Bft) 94,55 %
22.01.2026 19:44 4,5 °C 3,9 °C 0,0 °C 75 % 996,2 hPa 0,0 l/m² 0 min 0 min 0 W/m² 16,1 km/h (3 Bft) 95,74 %
22.01.2026 19:46 4,5 °C 3,9 °C 0,0 °C 75 % 996,3 hPa 0,0 l/m² 0 min 0 min 0 W/m² 19,3 km/h (3 Bft) 95,65 %
22.01.2026 19:48 4,5 °C 3,9 °C 0,0 °C 75 % 996,3 hPa 0,0 l/m² 0 min 0 min 0 W/m² 22,5 km/h (4 Bft) 92,31 %
22.01.2026 19:50 4,5 °C 3,9 °C 0,0 °C 75 % 996,3 hPa 0,0 l/m² 0 min 0 min 0 W/m² 16,1 km/h (3 Bft) 96,36 %
22.01.2026 19:52 4,5 °C 3,9 °C 0,0 °C 75 % 996,3 hPa 0,0 l/m² 0 min 0 min 0 W/m² 12,9 km/h (3 Bft) 94,87 %
22.01.2026 19:54 4,5 °C 3,9 °C 0,0 °C 76 % 996,4 hPa 0,0 l/m² 0 min 0 min 0 W/m² 12,9 km/h (3 Bft) 97,87 %
22.01.2026 19:56 4,5 °C 3,9 °C 0,0 °C 76 % 996,4 hPa 0,0 l/m² 0 min 0 min 0 W/m² 16,1 km/h (3 Bft) 94,55 %
22.01.2026 19:58 4,5 °C 3,9 °C -0,6 °C 76 % 996,5 hPa 0,0 l/m² 0 min 0 min 0 W/m² 16,1 km/h (3 Bft) 97,83 %
22.01.2026 20:00 4,5 °C 3,9 °C -0,6 °C 77 % 996,4 hPa 0,0 l/m² 0 min 0 min 0 W/m² 16,1 km/h (3 Bft) 95,24 %
22.01.2026 20:02 4,5 °C 3,9 °C -0,6 °C 77 % 996,5 hPa 0,0 l/m² 0 min 0 min 0 W/m² 19,3 km/h (3 Bft) 97,87 %
22.01.2026 20:04 4,5 °C 3,9 °C -1,1 °C 78 % 996,5 hPa 0,0 l/m² 0 min 0 min 0 W/m² 19,3 km/h (3 Bft) 97,92 %
22.01.2026 20:08 4,5 °C 3,9 °C -1,1 °C 78 % 996,5 hPa 0,0 l/m² 0 min 0 min 0 W/m² 19,3 km/h (3 Bft) 97,98 %
22.01.2026 20:10 4,5 °C 3,9 °C -1,1 °C 78 % 996,5 hPa 0,0 l/m² 0 min 0 min 0 W/m² 19,3 km/h (3 Bft) 95,12 %
22.01.2026 20:12 4,4 °C 3,9 °C -1,1 °C 78 % 996,5 hPa 0,0 l/m² 0 min 0 min 0 W/m² 16,1 km/h (3 Bft) 91,49 %
22.01.2026 20:14 4,4 °C 3,9 °C -1,1 °C 79 % 996,5 hPa 0,0 l/m² 0 min 0 min 0 W/m² 16,1 km/h (3 Bft) 96,36 %
22.01.2026 20:18 4,4 °C 3,3 °C -1,1 °C 79 % 996,5 hPa 0,0 l/m² 0 min 0 min 0 W/m² 19,3 km/h (3 Bft) 97,67 %
22.01.2026 20:20 4,3 °C 3,3 °C -1,1 °C 79 % 996,4 hPa 0,0 l/m² 0 min 2 min 0 W/m² 16,1 km/h (3 Bft) 97,83 %
22.01.2026 20:22 4,3 °C 3,3 °C -1,1 °C 79 % 996,4 hPa 0,0 l/m² 0 min 0 min 0 W/m² 19,3 km/h (3 Bft) 97,87 %
22.01.2026 20:24 4,3 °C 3,3 °C -1,1 °C 80 % 996,4 hPa 0,0 l/m² 0 min 0 min 0 W/m² 16,1 km/h (3 Bft) 97,83 %
22.01.2026 20:26 4,3 °C 3,3 °C -1,1 °C 80 % 996,4 hPa 0,0 l/m² 0 min 0 min 0 W/m² 9,7 km/h (2 Bft) 98,21 %
22.01.2026 20:28 4,3 °C 3,3 °C -1,1 °C 80 % 996,3 hPa 0,0 l/m² 0 min 0 min 0 W/m² 16,1 km/h (3 Bft) 97,44 %
22.01.2026 20:30 4,2 °C 3,3 °C -1,1 °C 80 % 996,3 hPa 0,0 l/m² 0 min 0 min 0 W/m² 6,4 km/h (2 Bft) 96,23 %
22.01.2026 20:32 4,2 °C 3,3 °C -1,1 °C 80 % 996,3 hPa 0,0 l/m² 0 min 0 min 0 W/m² 6,4 km/h (2 Bft) 97,50 %
22.01.2026 20:34 4,2 °C 3,3 °C -1,1 °C 81 % 996,3 hPa 0,0 l/m² 0 min 0 min 0 W/m² 6,4 km/h (2 Bft) 97,87 %
22.01.2026 20:36 4,2 °C 3,3 °C -1,1 °C 81 % 996,2 hPa 0,0 l/m² 0 min 0 min 0 W/m² 16,1 km/h (3 Bft) 94,44 %
22.01.2026 20:38 4,2 °C 3,3 °C -1,1 °C 81 % 996,1 hPa 0,0 l/m² 0 min 0 min 0 W/m² 12,9 km/h (3 Bft) 95,65 %
22.01.2026 20:40 4,2 °C 3,3 °C -1,1 °C 81 % 996,2 hPa 0,0 l/m² 0 min 0 min 0 W/m² 16,1 km/h (3 Bft) 93,75 %
22.01.2026 20:42 4,1 °C 3,3 °C -1,1 °C 81 % 996,2 hPa 0,0 l/m² 0 min 0 min 0 W/m² 16,1 km/h (3 Bft) 97,50 %
22.01.2026 20:44 4,1 °C 3,3 °C -0,6 °C 81 % 996,1 hPa 0,0 l/m² 0 min 0 min 0 W/m² 19,3 km/h (3 Bft) 97,83 %
22.01.2026 20:46 4,1 °C 3,3 °C -0,6 °C 81 % 996,1 hPa 0,0 l/m² 0 min 0 min 0 W/m² 16,1 km/h (3 Bft) 95,74 %
22.01.2026 20:48 4,1 °C 3,3 °C -0,6 °C 82 % 996,1 hPa 0,0 l/m² 0 min 0 min 0 W/m² 19,3 km/h (3 Bft) 97,87 %
22.01.2026 20:50 4,1 °C 3,3 °C -0,6 °C 82 % 996,1 hPa 0,0 l/m² 0 min 0 min 0 W/m² 19,3 km/h (3 Bft) 95,74 %
22.01.2026 20:52 4,1 °C 3,3 °C -0,6 °C 82 % 996,1 hPa 0,0 l/m² 0 min 0 min 0 W/m² 12,9 km/h (3 Bft) 98,15 %
22.01.2026 20:54 4,1 °C 3,3 °C -0,6 °C 82 % 996,1 hPa 0,0 l/m² 0 min 0 min 0 W/m² 16,1 km/h (3 Bft) 94,87 %
22.01.2026 20:56 4,1 °C 3,3 °C -0,6 °C 82 % 996,1 hPa 0,0 l/m² 0 min 0 min 0 W/m² 29,0 km/h (5 Bft) 95,74 %
22.01.2026 20:58 4,1 °C 3,3 °C -0,6 °C 82 % 996,1 hPa 0,0 l/m² 0 min 0 min 0 W/m² 12,9 km/h (3 Bft) 100,00 %
22.01.2026 21:00 4,1 °C 3,3 °C -0,6 °C 82 % 996,2 hPa 0,0 l/m² 0 min 0 min 0 W/m² 19,3 km/h (3 Bft) 100,00 %
22.01.2026 21:02 4,1 °C 3,3 °C -0,6 °C 82 % 996,2 hPa 0,0 l/m² 0 min 0 min 0 W/m² 16,1 km/h (3 Bft) 97,92 %
22.01.2026 21:04 4,1 °C 3,3 °C -0,6 °C 82 % 996,2 hPa 0,0 l/m² 0 min 0 min 0 W/m² 12,9 km/h (3 Bft) 100,00 %
22.01.2026 21:08 4,1 °C 3,3 °C -0,6 °C 82 % 996,2 hPa 0,0 l/m² 0 min 0 min 0 W/m² 19,3 km/h (3 Bft) 100,00 %
22.01.2026 21:10 4,1 °C 3,3 °C -0,6 °C 82 % 996,2 hPa 0,0 l/m² 0 min 0 min 0 W/m² 19,3 km/h (3 Bft) 96,30 %
22.01.2026 21:12 4,1 °C 3,3 °C -0,6 °C 82 % 996,3 hPa 0,0 l/m² 0 min 0 min 0 W/m² 22,5 km/h (4 Bft) 95,74 %
22.01.2026 21:14 4,1 °C 3,3 °C -0,6 °C 82 % 996,2 hPa 0,0 l/m² 0 min 0 min 0 W/m² 12,9 km/h (3 Bft) 97,50 %
22.01.2026 21:16 4,1 °C 3,3 °C -0,6 °C 82 % 996,2 hPa 0,0 l/m² 0 min 0 min 0 W/m² 25,7 km/h (4 Bft) 97,73 %
22.01.2026 21:18 4,1 °C 3,3 °C -0,6 °C 82 % 996,2 hPa 0,0 l/m² 0 min 0 min 0 W/m² 12,9 km/h (3 Bft) 97,96 %
22.01.2026 21:22 4,1 °C 3,3 °C -0,6 °C 82 % 996,1 hPa 0,0 l/m² 0 min 0 min 0 W/m² 16,1 km/h (3 Bft) 97,85 %
22.01.2026 21:24 4,1 °C 3,3 °C -0,6 °C 82 % 996,1 hPa 0,0 l/m² 0 min 0 min 0 W/m² 16,1 km/h (3 Bft) 97,92 %
22.01.2026 21:26 4,1 °C 3,3 °C -0,6 °C 82 % 996,2 hPa 0,0 l/m² 0 min 0 min 0 W/m² 19,3 km/h (3 Bft) 97,87 %
22.01.2026 21:28 4,1 °C 3,3 °C -0,6 °C 82 % 996,3 hPa 0,0 l/m² 0 min 0 min 0 W/m² 16,1 km/h (3 Bft) 95,74 %
22.01.2026 21:30 4,1 °C 3,3 °C -0,6 °C 82 % 996,2 hPa 0,0 l/m² 0 min 0 min 0 W/m² 12,9 km/h (3 Bft) 97,83 %
22.01.2026 21:32 4,1 °C 3,3 °C -0,6 °C 82 % 996,2 hPa 0,0 l/m² 0 min 0 min 0 W/m² 16,1 km/h (3 Bft) 95,56 %
22.01.2026 21:34 4,1 °C 3,3 °C -0,6 °C 82 % 996,2 hPa 0,0 l/m² 0 min 0 min 0 W/m² 16,1 km/h (3 Bft) 95,92 %
22.01.2026 21:36 4,1 °C 3,3 °C -0,6 °C 82 % 996,2 hPa 0,0 l/m² 0 min 0 min 0 W/m² 16,1 km/h (3 Bft) 97,87 %
22.01.2026 21:38 4,1 °C 3,3 °C -0,6 °C 82 % 996,1 hPa 0,0 l/m² 0 min 0 min 0 W/m² 19,3 km/h (3 Bft) 97,87 %
22.01.2026 21:40 4,1 °C 3,3 °C -0,6 °C 82 % 996,1 hPa 0,0 l/m² 0 min 0 min 0 W/m² 12,9 km/h (3 Bft) 97,87 %
22.01.2026 21:42 4,1 °C 3,3 °C -0,6 °C 82 % 996,1 hPa 0,0 l/m² 0 min 0 min 0 W/m² 16,1 km/h (3 Bft) 100,00 %
22.01.2026 21:44 4,1 °C 3,3 °C -0,6 °C 82 % 996,2 hPa 0,0 l/m² 0 min 0 min 0 W/m² 16,1 km/h (3 Bft) 100,00 %
22.01.2026 21:46 4,1 °C 3,3 °C -0,6 °C 82 % 996,3 hPa 0,0 l/m² 0 min 0 min 0 W/m² 16,1 km/h (3 Bft) 100,00 %
22.01.2026 21:48 4,1 °C 3,3 °C -0,6 °C 82 % 996,4 hPa 0,0 l/m² 0 min 0 min 0 W/m² 16,1 km/h (3 Bft) 97,30 %
22.01.2026 21:50 4,1 °C 3,3 °C -0,6 °C 82 % 996,4 hPa 0,0 l/m² 0 min 0 min 0 W/m² 12,9 km/h (3 Bft) 100,00 %
22.01.2026 21:52 4,1 °C 3,3 °C -0,6 °C 82 % 996,3 hPa 0,0 l/m² 0 min 0 min 0 W/m² 19,3 km/h (3 Bft) 100,00 %
22.01.2026 21:54 4,1 °C 3,3 °C -0,6 °C 82 % 996,3 hPa 0,0 l/m² 0 min 0 min 0 W/m² 16,1 km/h (3 Bft) 100,00 %
22.01.2026 21:56 4,1 °C 3,3 °C -0,6 °C 82 % 996,3 hPa 0,0 l/m² 0 min 0 min 0 W/m² 22,5 km/h (4 Bft) 100,00 %
22.01.2026 21:58 4,1 °C 3,3 °C -0,6 °C 82 % 996,3 hPa 0,0 l/m² 0 min 0 min 0 W/m² 16,1 km/h (3 Bft) 100,00 %
22.01.2026 22:00 4,1 °C 3,3 °C -0,6 °C 82 % 996,2 hPa 0,0 l/m² 0 min 0 min 0 W/m² 16,1 km/h (3 Bft) 100,00 %
22.01.2026 22:02 4,1 °C 3,3 °C -0,6 °C 83 % 996,2 hPa 0,0 l/m² 0 min 0 min 0 W/m² 19,3 km/h (3 Bft) 100,00 %
22.01.2026 22:04 4,1 °C 3,3 °C -0,6 °C 82 % 996,2 hPa 0,0 l/m² 0 min 0 min 0 W/m² 19,3 km/h (3 Bft) 100,00 %
22.01.2026 22:07 4,1 °C 3,3 °C -0,6 °C 83 % 996,2 hPa 0,0 l/m² 0 min 0 min 0 W/m² 22,5 km/h (4 Bft) 98,75 %
22.01.2026 22:08 4,1 °C 3,3 °C -0,6 °C 83 % 996,2 hPa 0,0 l/m² 0 min 0 min 0 W/m² 16,1 km/h (3 Bft) 100,00 %
22.01.2026 22:12 4,1 °C 3,3 °C -0,6 °C 83 % 996,3 hPa 0,0 l/m² 0 min 0 min 0 W/m² 16,1 km/h (3 Bft) 97,87 %
22.01.2026 22:14 4,1 °C 3,3 °C -0,6 °C 83 % 996,3 hPa 0,0 l/m² 0 min 0 min 0 W/m² 25,7 km/h (4 Bft) 100,00 %
22.01.2026 22:16 4,0 °C 3,3 °C -0,6 °C 83 % 996,3 hPa 0,0 l/m² 0 min 0 min 0 W/m² 16,1 km/h (3 Bft) 97,83 %
22.01.2026 22:18 4,0 °C 3,3 °C -0,6 °C 84 % 996,3 hPa 0,0 l/m² 0 min 0 min 0 W/m² 16,1 km/h (3 Bft) 100,00 %
22.01.2026 22:20 4,0 °C 3,3 °C -0,6 °C 84 % 996,3 hPa 0,0 l/m² 0 min 0 min 0 W/m² 19,3 km/h (3 Bft) 100,00 %
22.01.2026 22:22 4,0 °C 3,3 °C -0,6 °C 84 % 996,3 hPa 0,0 l/m² 0 min 0 min 0 W/m² 16,1 km/h (3 Bft) 100,00 %
22.01.2026 22:24 4,0 °C 3,3 °C -0,6 °C 84 % 996,3 hPa 0,0 l/m² 0 min 0 min 0 W/m² 19,3 km/h (3 Bft) 97,87 %
22.01.2026 22:26 4,0 °C 3,3 °C -0,6 °C 84 % 996,3 hPa 0,0 l/m² 0 min 0 min 0 W/m² 19,3 km/h (3 Bft) 100,00 %
22.01.2026 22:28 4,0 °C 3,3 °C -0,6 °C 84 % 996,4 hPa 0,0 l/m² 0 min 0 min 0 W/m² 25,7 km/h (4 Bft) 95,65 %
22.01.2026 22:30 3,9 °C 3,3 °C -0,6 °C 84 % 996,3 hPa 0,0 l/m² 0 min 0 min 0 W/m² 29,0 km/h (5 Bft) 97,87 %
22.01.2026 22:32 3,9 °C 3,3 °C -0,6 °C 84 % 996,3 hPa 0,0 l/m² 0 min 0 min 0 W/m² 22,5 km/h (4 Bft) 96,23 %
22.01.2026 22:34 3,9 °C 3,3 °C -0,6 °C 84 % 996,4 hPa 0,0 l/m² 0 min 0 min 0 W/m² 29,0 km/h (5 Bft) 100,00 %
22.01.2026 22:36 3,9 °C 3,3 °C -0,6 °C 84 % 996,3 hPa 0,0 l/m² 0 min 0 min 0 W/m² 19,3 km/h (3 Bft) 93,75 %
22.01.2026 22:38 3,9 °C 3,3 °C -0,6 °C 84 % 996,3 hPa 0,0 l/m² 0 min 0 min 0 W/m² 12,9 km/h (3 Bft) 96,00 %
22.01.2026 22:40 3,9 °C 3,3 °C -0,6 °C 84 % 996,3 hPa 0,0 l/m² 0 min 0 min 0 W/m² 16,1 km/h (3 Bft) 93,48 %
22.01.2026 22:42 3,9 °C 3,3 °C -0,6 °C 84 % 996,3 hPa 0,0 l/m² 0 min 0 min 0 W/m² 16,1 km/h (3 Bft) 97,67 %
22.01.2026 22:44 3,9 °C 3,3 °C -0,6 °C 85 % 996,3 hPa 0,0 l/m² 0 min 0 min 0 W/m² 16,1 km/h (3 Bft) 98,00 %
22.01.2026 22:46 3,9 °C 3,3 °C -0,6 °C 85 % 996,3 hPa 0,0 l/m² 0 min 0 min 0 W/m² 19,3 km/h (3 Bft) 95,74 %
22.01.2026 22:48 3,9 °C 3,3 °C -0,6 °C 85 % 996,3 hPa 0,0 l/m² 0 min 0 min 0 W/m² 12,9 km/h (3 Bft) 95,83 %
22.01.2026 22:50 3,9 °C 3,3 °C -0,6 °C 85 % 996,3 hPa 0,0 l/m² 0 min 0 min 0 W/m² 12,9 km/h (3 Bft) 94,34 %
22.01.2026 22:52 3,9 °C 3,3 °C -0,6 °C 85 % 996,3 hPa 0,0 l/m² 0 min 0 min 0 W/m² 19,3 km/h (3 Bft) 95,00 %
22.01.2026 22:54 3,9 °C 3,3 °C -0,6 °C 85 % 996,2 hPa 0,0 l/m² 0 min 0 min 0 W/m² 19,3 km/h (3 Bft) 94,44 %
22.01.2026 22:56 3,9 °C 3,3 °C -0,6 °C 85 % 996,2 hPa 0,0 l/m² 0 min 0 min 0 W/m² 16,1 km/h (3 Bft) 94,29 %
22.01.2026 22:58 3,9 °C 3,3 °C -0,6 °C 85 % 996,2 hPa 0,0 l/m² 0 min 0 min 0 W/m² 19,3 km/h (3 Bft) 92,31 %
22.01.2026 23:00 3,9 °C 3,3 °C -0,6 °C 85 % 996,2 hPa 0,0 l/m² 0 min 0 min 0 W/m² 16,1 km/h (3 Bft) 95,65 %
22.01.2026 23:02 3,9 °C 3,3 °C -0,6 °C 86 % 996,2 hPa 0,0 l/m² 0 min 0 min 0 W/m² 19,3 km/h (3 Bft) 91,49 %
22.01.2026 23:04 3,8 °C 3,3 °C -0,6 °C 86 % 996,2 hPa 0,0 l/m² 0 min 0 min 0 W/m² 19,3 km/h (3 Bft) 93,62 %
22.01.2026 23:08 3,9 °C 3,3 °C -0,6 °C 86 % 996,2 hPa 0,0 l/m² 0 min 0 min 0 W/m² 19,3 km/h (3 Bft) 92,55 %
22.01.2026 23:10 3,9 °C 3,3 °C -0,6 °C 86 % 996,2 hPa 0,0 l/m² 0 min 0 min 0 W/m² 16,1 km/h (3 Bft) 93,62 %
22.01.2026 23:12 3,9 °C 3,3 °C -0,6 °C 86 % 996,2 hPa 0,0 l/m² 0 min 0 min 0 W/m² 16,1 km/h (3 Bft) 91,49 %
22.01.2026 23:14 3,9 °C 3,3 °C -0,6 °C 86 % 996,2 hPa 0,0 l/m² 0 min 0 min 0 W/m² 16,1 km/h (3 Bft) 93,48 %
22.01.2026 23:16 3,9 °C 3,3 °C -0,6 °C 86 % 996,2 hPa 0,0 l/m² 0 min 0 min 0 W/m² 16,1 km/h (3 Bft) 93,62 %
22.01.2026 23:18 3,9 °C 3,3 °C -0,6 °C 86 % 996,2 hPa 0,0 l/m² 0 min 0 min 0 W/m² 19,3 km/h (3 Bft) 91,49 %
22.01.2026 23:20 3,9 °C 3,3 °C -0,6 °C 86 % 996,2 hPa 0,0 l/m² 0 min 0 min 0 W/m² 16,1 km/h (3 Bft) 93,62 %
22.01.2026 23:22 3,9 °C 3,3 °C -0,6 °C 86 % 996,2 hPa 0,0 l/m² 0 min 0 min 0 W/m² 9,7 km/h (2 Bft) 91,49 %
22.01.2026 23:24 3,9 °C 3,3 °C -0,6 °C 87 % 996,3 hPa 0,0 l/m² 0 min 0 min 0 W/m² 19,3 km/h (3 Bft) 95,74 %
22.01.2026 23:26 3,9 °C 3,3 °C -0,6 °C 87 % 996,2 hPa 0,0 l/m² 0 min 0 min 0 W/m² 12,9 km/h (3 Bft) 93,48 %
22.01.2026 23:28 3,9 °C 3,3 °C -0,6 °C 87 % 996,3 hPa 0,0 l/m² 0 min 0 min 0 W/m² 9,7 km/h (2 Bft) 97,87 %
22.01.2026 23:30 3,9 °C 3,3 °C -0,6 °C 87 % 996,2 hPa 0,0 l/m² 0 min 0 min 0 W/m² 19,3 km/h (3 Bft) 95,74 %
22.01.2026 23:32 3,9 °C 3,3 °C -0,6 °C 87 % 996,2 hPa 0,0 l/m² 0 min 0 min 0 W/m² 16,1 km/h (3 Bft) 97,87 %
22.01.2026 23:34 3,9 °C 3,3 °C -0,6 °C 87 % 996,2 hPa 0,0 l/m² 0 min 0 min 0 W/m² 12,9 km/h (3 Bft) 95,74 %
22.01.2026 23:36 3,9 °C 3,3 °C -0,6 °C 87 % 996,3 hPa 0,0 l/m² 0 min 0 min 0 W/m² 16,1 km/h (3 Bft) 97,87 %
22.01.2026 23:38 3,9 °C 3,3 °C -0,6 °C 87 % 996,2 hPa 0,0 l/m² 0 min 0 min 0 W/m² 16,1 km/h (3 Bft) 97,83 %
22.01.2026 23:40 3,9 °C 3,3 °C -0,6 °C 87 % 996,2 hPa 0,0 l/m² 0 min 0 min 0 W/m² 19,3 km/h (3 Bft) 100,00 %
22.01.2026 23:42 3,9 °C 3,3 °C -0,6 °C 87 % 996,3 hPa 0,0 l/m² 0 min 0 min 0 W/m² 16,1 km/h (3 Bft) 95,83 %
22.01.2026 23:44 3,9 °C 3,3 °C -0,6 °C 87 % 996,3 hPa 0,0 l/m² 0 min 0 min 0 W/m² 19,3 km/h (3 Bft) 97,87 %
22.01.2026 23:46 3,9 °C 3,3 °C -0,6 °C 87 % 996,4 hPa 0,0 l/m² 0 min 0 min 0 W/m² 16,1 km/h (3 Bft) 100,00 %
22.01.2026 23:48 3,8 °C 3,3 °C -0,6 °C 87 % 996,2 hPa 0,0 l/m² 0 min 0 min 0 W/m² 16,1 km/h (3 Bft) 100,00 %
22.01.2026 23:50 3,8 °C 3,3 °C -0,6 °C 87 % 996,2 hPa 0,0 l/m² 0 min 0 min 0 W/m² 19,3 km/h (3 Bft) 100,00 %
22.01.2026 23:52 3,8 °C 3,3 °C -0,6 °C 87 % 996,2 hPa 0,0 l/m² 0 min 0 min 0 W/m² 12,9 km/h (3 Bft) 100,00 %
22.01.2026 23:54 3,8 °C 3,3 °C -0,6 °C 87 % 996,2 hPa 0,0 l/m² 0 min 0 min 0 W/m² 16,1 km/h (3 Bft) 100,00 %
22.01.2026 23:56 3,8 °C 3,3 °C -0,6 °C 87 % 996,2 hPa 0,0 l/m² 0 min 0 min 0 W/m² 12,9 km/h (3 Bft) 100,00 %
22.01.2026 23:58 3,8 °C 3,3 °C -0,6 °C 87 % 996,2 hPa 0,0 l/m² 0 min 0 min 0 W/m² 9,7 km/h (2 Bft) 100,00 %
_ Min-Zeit 04:32 03:32 04:10 13:46 14:46 - - - - 14:44 01:36
Minimum _ 1,3 °C 0,6 °C -3,3 °C 62 % 995,9 hPa - - - - 3,2 km/h (1 Bft) 53,49 %
_ Max-Zeit 14:04 13:00 13:58 23:24 00:00 00:00 11:08 20:20 12:54 20:56 01:02
Maximum _ 7,3 °C 13,3 °C 1,7 °C 87 % 999,0 hPa 0,0 l/m² 4 min 2 min 353 W/m² 29,0 km/h
SO (5 Bft)
100,00 %
Durchschnitt _ 3,7 °C 3,7 °C -1,2 °C 73 % 997,0 hPa #0,0 l/m² #3:38 h #2 min. 136 W/m² 13,8 km/h (3 Bft) 97,05 %
© 2026 W. Hausmann